Observation data for Umbarger on 12/12/2018      Previous  Date       Current Mesonet Observations  Soil Data  Daily Summary Page  Observations in Plain Language
KUM1 120600Z 10005KT 01/M08 A30 RMK A01 T00051079  RH  053%=      5-min Rain = 0
KUM1 120601Z 10005KT 01/M08 A30 RMK A01 T00071078  RH  053%=      5-min Rain = 0
KUM1 120602Z 10005KT 01/M08 A30 RMK A01 T00081079  RH  052%=      5-min Rain = 0
KUM1 120603Z 09006KT 01/M08 A3001 RMK A01 T00091078  RH  052%=      5-min Rain = 0
KUM1 120604Z 09006KT 01/M08 A30 RMK A01 T00121078  RH  051%=      5-min Rain = 0
KUM1 120605Z 10005KT 01/M08 A30 RMK A01 T00121078  RH  051%=      5-min Rain = 0
KUM1 120606Z 10005KT 01/M08 A30 RMK A01 T00131079  RH  050%=      5-min Rain = 0
KUM1 120607Z 10004KT 01/M08 A30 RMK A01 T00131079  RH  050%=      5-min Rain = 0
KUM1 120608Z 10004KT 01/M08 A30 RMK A01 T00131079  RH  050%=      5-min Rain = 0
KUM1 120609Z 10004KT 01/M08 A30 RMK A01 T00131079  RH  050%=      5-min Rain = 0
KUM1 120610Z 10004KT 01/M08 A30 RMK A01 T00131080  RH  050%=      5-min Rain = 0
KUM1 120611Z 10003KT 01/M08 A30 RMK A01 T00121080  RH  050%=      5-min Rain = 0
KUM1 120612Z 10003KT 01/M08 A30 RMK A01 T00121080  RH  050%=      5-min Rain = 0
KUM1 120613Z 10003KT 01/M08 A30 RMK A01 T00131080  RH  050%=      5-min Rain = 0
KUM1 120614Z 10003KT 01/M08 A30 RMK A01 T00121081  RH  050%=      5-min Rain = 0
KUM1 120615Z 11004KT 01/M08 A30 RMK A01 T00121081  RH  050%=      5-min Rain = 0
KUM1 120616Z 11004KT 01/M08 A30 RMK A01 T00121081  RH  050%=      5-min Rain = 0
KUM1 120617Z 12005KT 01/M08 A30 RMK A01 T00121082  RH  050%=      5-min Rain = 0
KUM1 120618Z 12005KT 01/M08 A30 RMK A01 T00111082  RH  050%=      5-min Rain = 0
KUM1 120619Z 11005KT 01/M08 A30 RMK A01 T00101083  RH  050%=      5-min Rain = 0
KUM1 120620Z 10004KT 01/M08 A30 RMK A01 T00091083  RH  050%=      5-min Rain = 0
KUM1 120621Z 09005KT 01/M08 A30 RMK A01 T00091083  RH  051%=      5-min Rain = 0
KUM1 120622Z 09005KT 01/M08 A30 RMK A01 T00081083  RH  051%=      5-min Rain = 0
KUM1 120623Z 09005KT 01/M08 A3001 RMK A01 T00111081  RH  050%=      5-min Rain = 0
KUM1 120624Z 09005KT 01/M08 A3001 RMK A01 T00121080  RH  050%=      5-min Rain = 0
KUM1 120625Z 09005KT 01/M08 A30 RMK A01 T00131081  RH  050%=      5-min Rain = 0
KUM1 120626Z 08005KT 01/M08 A3001 RMK A01 T00131081  RH  050%=      5-min Rain = 0
KUM1 120627Z 08005KT 01/M08 A3001 RMK A01 T00121081  RH  050%=      5-min Rain = 0
KUM1 120628Z 08005KT 01/M08 A3001 RMK A01 T00111081  RH  050%=      5-min Rain = 0
KUM1 120629Z 07005KT 01/M08 A3001 RMK A01 T00091081  RH  051%=      5-min Rain = 0
KUM1 120630Z 07005KT 01/M08 A3001 RMK A01 T00061081  RH  052%=      5-min Rain = 0
KUM1 120631Z 06005KT 00/M08 A3001 RMK A01 T00031081  RH  053%=      5-min Rain = 0
KUM1 120632Z 06006KT M00/M08 A3001 RMK A01 T10011081  RH  055%=      5-min Rain = 0
KUM1 120633Z 06007KT M00/M08 A3001 RMK A01 T10041081  RH  056%=      5-min Rain = 0
KUM1 120634Z 06006KT M01/M08 A30 RMK A01 T10071080  RH  058%=      5-min Rain = 0
KUM1 120635Z 05006KT M01/M08 A30 RMK A01 T10081079  RH  059%=      5-min Rain = 0
KUM1 120636Z 05006KT M01/M08 A30 RMK A01 T10101078  RH  060%=      5-min Rain = 0
KUM1 120637Z 04006KT M01/M08 A30 RMK A01 T10131078  RH  061%=      5-min Rain = 0
KUM1 120638Z 04006KT M01/M08 A30 RMK A01 T10141077  RH  062%=      5-min Rain = 0
KUM1 120639Z 04006KT M02/M08 A30 RMK A01 T10161077  RH  063%=      5-min Rain = 0
KUM1 120640Z 04006KT M02/M08 A30 RMK A01 T10171077  RH  063%=      5-min Rain = 0
KUM1 120641Z 04007KT M02/M08 A30 RMK A01 T10171077  RH  063%=      5-min Rain = 0
KUM1 120642Z 04008KT M02/M08 A30 RMK A01 T10171078  RH  063%=      5-min Rain = 0
KUM1 120643Z 03008KT M02/M08 A30 RMK A01 T10171078  RH  063%=      5-min Rain = 0
KUM1 120644Z 03009KT M02/M08 A30 RMK A01 T10161078  RH  063%=      5-min Rain = 0
KUM1 120645Z 03010KT M01/M08 A30 RMK A01 T10141077  RH  062%=      5-min Rain = 0
KUM1 120646Z 03010KT M01/M08 A30 RMK A01 T10111077  RH  061%=      5-min Rain = 0
KUM1 120647Z 03010KT M01/M08 A30 RMK A01 T10091077  RH  060%=      5-min Rain = 0
KUM1 120648Z 03009KT M01/M08 A30 RMK A01 T10071077  RH  059%=      5-min Rain = 0
KUM1 120649Z 03009KT M01/M08 A30 RMK A01 T10051077  RH  058%=      5-min Rain = 0
KUM1 120650Z 03009KT M00/M08 A30 RMK A01 T10041077  RH  058%=      5-min Rain = 0
KUM1 120651Z 03008KT M00/M08 A30 RMK A01 T10041077  RH  058%=      5-min Rain = 0
KUM1 120652Z 03008KT M00/M08 A30 RMK A01 T10041078  RH  057%=      5-min Rain = 0
KUM1 120653Z 03008KT M00/M08 A30 RMK A01 T10041078  RH  057%=      5-min Rain = 0
KUM1 120654Z 03007KT M00/M08 A30 RMK A01 T10041078  RH  057%=      5-min Rain = 0
KUM1 120655Z 03006KT M00/M08 A30 RMK A01 T10041079  RH  057%=      5-min Rain = 0
KUM1 120656Z 03006KT M01/M08 A30 RMK A01 T10051079  RH  057%=      5-min Rain = 0
KUM1 120657Z 03006KT M01/M08 A2999 RMK A01 T10061079  RH  058%=      5-min Rain = 0
KUM1 120658Z 03006KT M01/M08 A2999 RMK A01 T10071079  RH  058%=      5-min Rain = 0
KUM1 120659Z 03007KT M01/M08 A2999 RMK A01 T10061079  RH  058%=      5-min Rain = 0
KUM1 120700Z 03007KT M01/M08 A2999 RMK A01 T10061079  RH  058%=      5-min Rain = 0
KUM1 120701Z 03006KT M01/M08 A2999 RMK A01 T10071079  RH  058%=      5-min Rain = 0
KUM1 120702Z 03006KT M01/M08 A2999 RMK A01 T10081079  RH  059%=      5-min Rain = 0
KUM1 120703Z 03006KT M01/M08 A2999 RMK A01 T10101079  RH  059%=      5-min Rain = 0
KUM1 120704Z 03006KT M01/M08 A2999 RMK A01 T10111080  RH  060%=      5-min Rain = 0
KUM1 120705Z 04006KT M01/M08 A2999 RMK A01 T10121079  RH  060%=      5-min Rain = 0
KUM1 120706Z 03006KT M01/M08 A2999 RMK A01 T10131079  RH  061%=      5-min Rain = 0
KUM1 120707Z 03006KT M02/M08 A2999 RMK A01 T10151079  RH  062%=      5-min Rain = 0
KUM1 120708Z 03007KT M02/M08 A2999 RMK A01 T10171080  RH  062%=      5-min Rain = 0
KUM1 120709Z 03007KT M02/M08 A2999 RMK A01 T10181079  RH  063%=      5-min Rain = 0
KUM1 120710Z 02007KT M02/M08 A2999 RMK A01 T10171079  RH  063%=      5-min Rain = 0
KUM1 120711Z 01007KT M02/M08 A2999 RMK A01 T10181080  RH  063%=      5-min Rain = 0
KUM1 120712Z 01008KT M02/M08 A2999 RMK A01 T10191079  RH  063%=      5-min Rain = 0
KUM1 120713Z 01008KT M02/M08 A30 RMK A01 T10191079  RH  064%=      5-min Rain = 0
KUM1 120714Z 01008KT M02/M08 A30 RMK A01 T10191079  RH  064%=      5-min Rain = 0
KUM1 120715Z 01008KT M02/M08 A30 RMK A01 T10201079  RH  064%=      5-min Rain = 0
KUM1 120716Z 02008KT M02/M08 A30 RMK A01 T10201079  RH  064%=      5-min Rain = 0
KUM1 120717Z 01008KT M02/M08 A30 RMK A01 T10191078  RH  064%=      5-min Rain = 0
KUM1 120718Z 01008KT M02/M08 A30 RMK A01 T10191079  RH  064%=      5-min Rain = 0
KUM1 120719Z 00008KT M02/M08 A30 RMK A01 T10201080  RH  064%=      5-min Rain = 0
KUM1 120720Z 00008KT M02/M08 A30 RMK A01 T10201080  RH  064%=      5-min Rain = 0
KUM1 120721Z 36008KT M02/M08 A30 RMK A01 T10201079  RH  064%=      5-min Rain = 0
KUM1 120722Z 00008KT M02/M08 A30 RMK A01 T10201079  RH  064%=      5-min Rain = 0
KUM1 120723Z 00009KT M02/M08 A30 RMK A01 T10221079  RH  065%=      5-min Rain = 0
KUM1 120724Z 01009KT M03/M08 A30 RMK A01 T10251081  RH  066%=      5-min Rain = 0
KUM1 120725Z 01008KT M03/M08 A30 RMK A01 T10261080  RH  066%=      5-min Rain = 0
KUM1 120726Z 01008KT M03/M08 A30 RMK A01 T10261081  RH  066%=      5-min Rain = 0
KUM1 120727Z 02007KT M03/M08 A30 RMK A01 T10251080  RH  066%=      5-min Rain = 0
KUM1 120728Z 01007KT M02/M08 A30 RMK A01 T10241080  RH  065%=      5-min Rain = 0
KUM1 120729Z 01007KT M02/M08 A30 RMK A01 T10231081  RH  065%=      5-min Rain = 0
KUM1 120730Z 01007KT M02/M08 A30 RMK A01 T10221081  RH  064%=      5-min Rain = 0
KUM1 120731Z 01007KT M02/M08 A30 RMK A01 T10221081  RH  064%=      5-min Rain = 0
KUM1 120732Z 01007KT M02/M08 A30 RMK A01 T10231081  RH  065%=      5-min Rain = 0
KUM1 120733Z 01006KT M03/M08 A30 RMK A01 T10251081  RH  065%=      5-min Rain = 0
KUM1 120734Z 01006KT M03/M08 A30 RMK A01 T10271082  RH  066%=      5-min Rain = 0
KUM1 120735Z 01006KT M03/M08 A30 RMK A01 T10281082  RH  067%=      5-min Rain = 0
KUM1 120736Z 01006KT M03/M08 A30 RMK A01 T10291082  RH  067%=      5-min Rain = 0
KUM1 120737Z 01006KT M03/M08 A30 RMK A01 T10311082  RH  068%=      5-min Rain = 0
KUM1 120738Z 01006KT M03/M08 A30 RMK A01 T10321082  RH  068%=      5-min Rain = 0
KUM1 120739Z 01006KT M03/M08 A30 RMK A01 T10321082  RH  069%=      5-min Rain = 0
KUM1 120740Z 01006KT M03/M08 A30 RMK A01 T10321082  RH  069%=      5-min Rain = 0
KUM1 120741Z 01006KT M03/M08 A2999 RMK A01 T10331082  RH  069%=      5-min Rain = 0
KUM1 120742Z 01006KT M03/M08 A2999 RMK A01 T10321081  RH  069%=      5-min Rain = 0
KUM1 120743Z 01005KT M03/M08 A2999 RMK A01 T10311081  RH  069%=      5-min Rain = 0
KUM1 120744Z 01005KT M03/M08 A2999 RMK A01 T10321081  RH  068%=      5-min Rain = 0
KUM1 120745Z 01005KT M03/M08 A2999 RMK A01 T10311081  RH  069%=      5-min Rain = 0
KUM1 120746Z 00005KT M03/M08 A2999 RMK A01 T10311080  RH  069%=      5-min Rain = 0
KUM1 120747Z 36005KT M03/M08 A2999 RMK A01 T10311079  RH  069%=      5-min Rain = 0
KUM1 120748Z 35005KT M03/M08 A2999 RMK A01 T10301079  RH  069%=      5-min Rain = 0
KUM1 120749Z 34005KT M03/M08 A30 RMK A01 T10301078  RH  070%=      5-min Rain = 0
KUM1 120750Z 35005KT M03/M08 A30 RMK A01 T10291076  RH  070%=      5-min Rain = 0
KUM1 120751Z 35005KT M03/M08 A30 RMK A01 T10291076  RH  070%=      5-min Rain = 0
KUM1 120752Z 34006KT M03/M08 A30 RMK A01 T10301075  RH  071%=      5-min Rain = 0
KUM1 120753Z 34006KT M03/M08 A2999 RMK A01 T10311075  RH  072%=      5-min Rain = 0
KUM1 120754Z 34006KT M03/M08 A2999 RMK A01 T10331076  RH  072%=      5-min Rain = 0
KUM1 120755Z 34006KT M03/M08 A2999 RMK A01 T10341076  RH  073%=      5-min Rain = 0
KUM1 120756Z 34006KT M04/M08 A2999 RMK A01 T10351076  RH  073%=      5-min Rain = 0
KUM1 120757Z 34006KT M04/M08 A2999 RMK A01 T10351077  RH  073%=      5-min Rain = 0
KUM1 120758Z 34007KT M04/M08 A2999 RMK A01 T10361077  RH  073%=      5-min Rain = 0
KUM1 120759Z 33010KT M04/M08 A2999 RMK A01 T10361077  RH  073%=      5-min Rain = 0
KUM1 120800Z 33009KT M04/M08 A2999 RMK A01 T10361077  RH  074%=      5-min Rain = 0
KUM1 120801Z 33010KT M04/M08 A2999 RMK A01 T10361076  RH  074%=      5-min Rain = 0
KUM1 120802Z 33010KT M04/M08 A2999 RMK A01 T10361076  RH  074%=      5-min Rain = 0
KUM1 120803Z 33010KT M04/M08 A2999 RMK A01 T10351076  RH  073%=      5-min Rain = 0
KUM1 120804Z 33009KT M04/M08 A2999 RMK A01 T10351077  RH  072%=      5-min Rain = 0
KUM1 120805Z 34009KT M04/M08 A2999 RMK A01 T10351079  RH  072%=      5-min Rain = 0
KUM1 120806Z 34008KT M03/M08 A2999 RMK A01 T10341079  RH  071%=      5-min Rain = 0
KUM1 120807Z 34008KT M03/M08 A30 RMK A01 T10341080  RH  071%=      5-min Rain = 0
KUM1 120808Z 34008KT M04/M08 A30 RMK A01 T10351081  RH  071%=      5-min Rain = 0
KUM1 120809Z 33008KT M04/M08 A30 RMK A01 T10351081  RH  071%=      5-min Rain = 0
KUM1 120810Z 33009KT M04/M08 A30 RMK A01 T10361081  RH  071%=      5-min Rain = 0
KUM1 120811Z 33009KT M04/M08 A30 RMK A01 T10371081  RH  071%=      5-min Rain = 0
KUM1 120812Z 33009KT M04/M08 A30 RMK A01 T10371081  RH  071%=      5-min Rain = 0
KUM1 120813Z 33008KT M04/M08 A30 RMK A01 T10381082  RH  072%=      5-min Rain = 0
KUM1 120814Z 33008KT M04/M08 A30 RMK A01 T10391082  RH  072%=      5-min Rain = 0
KUM1 120815Z 33007KT M04/M08 A30 RMK A01 T10401082  RH  072%=      5-min Rain = 0
KUM1 120816Z 33007KT M04/M08 A30 RMK A01 T10401082  RH  073%=      5-min Rain = 0
KUM1 120817Z 33007KT M04/M08 A30 RMK A01 T10401081  RH  073%=      5-min Rain = 0
KUM1 120818Z 33007KT M04/M08 A30 RMK A01 T10411080  RH  074%=      5-min Rain = 0
KUM1 120819Z 33007KT M04/M08 A2999 RMK A01 T10411080  RH  074%=      5-min Rain = 0
KUM1 120820Z 33007KT M04/M08 A2999 RMK A01 T10411079  RH  075%=      5-min Rain = 0
KUM1 120821Z 34007KT M04/M08 A2999 RMK A01 T10411079  RH  075%=      5-min Rain = 0
KUM1 120822Z 33007KT M04/M08 A2999 RMK A01 T10401078  RH  075%=      5-min Rain = 0
KUM1 120823Z 33006KT M04/M08 A2999 RMK A01 T10391078  RH  074%=      5-min Rain = 0
KUM1 120824Z 33007KT M04/M08 A2999 RMK A01 T10381079  RH  073%=      5-min Rain = 0
KUM1 120825Z 33006KT M04/M08 A2999 RMK A01 T10371079  RH  073%=      5-min Rain = 0
KUM1 120826Z 33007KT M04/M08 A2999 RMK A01 T10371079  RH  073%=      5-min Rain = 0
KUM1 120827Z 33008KT M04/M08 A2999 RMK A01 T10381080  RH  073%=      5-min Rain = 0
KUM1 120828Z 33008KT M04/M08 A2999 RMK A01 T10371079  RH  073%=      5-min Rain = 0
KUM1 120829Z 33007KT M04/M08 A2999 RMK A01 T10371079  RH  073%=      5-min Rain = 0
KUM1 120830Z 32007KT M04/M08 A2999 RMK A01 T10371079  RH  072%=      5-min Rain = 0
KUM1 120831Z 32007KT M04/M08 A2999 RMK A01 T10371080  RH  072%=      5-min Rain = 0
KUM1 120832Z 32007KT M04/M08 A2999 RMK A01 T10391082  RH  072%=      5-min Rain = 0
KUM1 120833Z 32007KT M04/M08 A2999 RMK A01 T10401083  RH  072%=      5-min Rain = 0
KUM1 120834Z 32007KT M04/M08 A2999 RMK A01 T10401083  RH  072%=      5-min Rain = 0
KUM1 120835Z 32007KT M04/M08 A2999 RMK A01 T10391082  RH  072%=      5-min Rain = 0
KUM1 120836Z 32008KT M04/M08 A2999 RMK A01 T10401083  RH  072%=      5-min Rain = 0
KUM1 120837Z 32008KT M04/M08 A2999 RMK A01 T10401083  RH  072%=      5-min Rain = 0
KUM1 120838Z 32008KT M04/M08 A2999 RMK A01 T10391082  RH  072%=      5-min Rain = 0
KUM1 120839Z 32008KT M04/M08 A2999 RMK A01 T10391082  RH  072%=      5-min Rain = 0
KUM1 120840Z 32008KT M04/M08 A2999 RMK A01 T10401082  RH  072%=      5-min Rain = 0
KUM1 120841Z 32008KT M04/M08 A2999 RMK A01 T10401082  RH  072%=      5-min Rain = 0
KUM1 120842Z 32008KT M04/M08 A2999 RMK A01 T10401082  RH  073%=      5-min Rain = 0
KUM1 120843Z 32008KT M04/M08 A2999 RMK A01 T10411082  RH  073%=      5-min Rain = 0
KUM1 120844Z 32009KT M04/M08 A2999 RMK A01 T10411082  RH  073%=      5-min Rain = 0
KUM1 120845Z 32009KT M04/M08 A2999 RMK A01 T10401081  RH  073%=      5-min Rain = 0
KUM1 120846Z 33009KT M04/M08 A2999 RMK A01 T10401081  RH  073%=      5-min Rain = 0
KUM1 120847Z 33009KT M04/M08 A2999 RMK A01 T10401080  RH  073%=      5-min Rain = 0
KUM1 120848Z 33009KT M04/M08 A2999 RMK A01 T10381080  RH  073%=      5-min Rain = 0
KUM1 120849Z 33009KT M04/M08 A2999 RMK A01 T10381079  RH  073%=      5-min Rain = 0
KUM1 120850Z 33009KT M04/M08 A2999 RMK A01 T10371079  RH  072%=      5-min Rain = 0
KUM1 120851Z 34009KT M04/M08 A2999 RMK A01 T10361079  RH  072%=      5-min Rain = 0
KUM1 120852Z 34009KT M04/M08 A2999 RMK A01 T10351079  RH  071%=      5-min Rain = 0
KUM1 120853Z 33009KT M03/M08 A2999 RMK A01 T10341079  RH  071%=      5-min Rain = 0
KUM1 120854Z 33008KT M03/M08 A2999 RMK A01 T10331080  RH  070%=      5-min Rain = 0
KUM1 120855Z 33008KT M03/M08 A2999 RMK A01 T10331080  RH  070%=      5-min Rain = 0
KUM1 120856Z 33009KT M03/M08 A30 RMK A01 T10331081  RH  070%=      5-min Rain = 0
KUM1 120857Z 33009KT M03/M08 A30 RMK A01 T10331080  RH  070%=      5-min Rain = 0
KUM1 120858Z 33009KT M03/M08 A30 RMK A01 T10331081  RH  070%=      5-min Rain = 0
KUM1 120859Z 33009KT M03/M08 A30 RMK A01 T10321080  RH  069%=      5-min Rain = 0
KUM1 120900Z 33008KT M03/M08 A30 RMK A01 T10311080  RH  069%=      5-min Rain = 0
KUM1 120901Z 32008KT M03/M08 A30 RMK A01 T10311080  RH  069%=      5-min Rain = 0
KUM1 120902Z 32007KT M03/M08 A30 RMK A01 T10321081  RH  069%=      5-min Rain = 0
KUM1 120903Z 32007KT M03/M08 A30 RMK A01 T10331082  RH  069%=      5-min Rain = 0
KUM1 120904Z 32007KT M03/M08 A30 RMK A01 T10341082  RH  070%=      5-min Rain = 0
KUM1 120905Z 32007KT M03/M08 A30 RMK A01 T10341081  RH  070%=      5-min Rain = 0
KUM1 120906Z 32008KT M04/M08 A30 RMK A01 T10351082  RH  070%=      5-min Rain = 0
KUM1 120907Z 32008KT M04/M08 A30 RMK A01 T10371082  RH  071%=      5-min Rain = 0
KUM1 120908Z 32007KT M04/M08 A30 RMK A01 T10381082  RH  071%=      5-min Rain = 0
KUM1 120909Z 32008KT M04/M08 A30 RMK A01 T10391083  RH  072%=      5-min Rain = 0
KUM1 120910Z 32008KT M04/M08 A30 RMK A01 T10401083  RH  072%=      5-min Rain = 0
KUM1 120911Z 32008KT M04/M08 A30 RMK A01 T10401082  RH  072%=      5-min Rain = 0
KUM1 120912Z 32008KT M04/M08 A30 RMK A01 T10391082  RH  072%=      5-min Rain = 0
KUM1 120913Z 32008KT M04/M08 A30 RMK A01 T10391082  RH  072%=      5-min Rain = 0
KUM1 120914Z 33007KT M04/M08 A30 RMK A01 T10391082  RH  072%=      5-min Rain = 0
KUM1 120915Z 32007KT M04/M08 A30 RMK A01 T10381082  RH  072%=      5-min Rain = 0
KUM1 120916Z 33007KT M04/M08 A30 RMK A01 T10381082  RH  072%=      5-min Rain = 0
KUM1 120917Z 33008KT M04/M08 A30 RMK A01 T10371081  RH  071%=      5-min Rain = 0
KUM1 120918Z 32008KT M04/M08 A30 RMK A01 T10371081  RH  071%=      5-min Rain = 0
KUM1 120919Z 32008KT M04/M08 A30 RMK A01 T10371082  RH  071%=      5-min Rain = 0
KUM1 120920Z 32008KT M04/M08 A30 RMK A01 T10371082  RH  071%=      5-min Rain = 0
KUM1 120921Z 32008KT M04/M08 A30 RMK A01 T10391082  RH  072%=      5-min Rain = 0
KUM1 120922Z 32007KT M04/M08 A30 RMK A01 T10381082  RH  072%=      5-min Rain = 0
KUM1 120923Z 32007KT M04/M08 A30 RMK A01 T10371081  RH  072%=      5-min Rain = 0
KUM1 120924Z 32008KT M04/M08 A30 RMK A01 T10361081  RH  071%=      5-min Rain = 0
KUM1 120925Z 32007KT M04/M08 A30 RMK A01 T10361082  RH  071%=      5-min Rain = 0
KUM1 120926Z 32007KT M04/M08 A30 RMK A01 T10361082  RH  070%=      5-min Rain = 0
KUM1 120927Z 32007KT M04/M08 A30 RMK A01 T10351082  RH  070%=      5-min Rain = 0
KUM1 120928Z 32007KT M04/M08 A30 RMK A01 T10361083  RH  070%=      5-min Rain = 0
KUM1 120929Z 32007KT M04/M08 A30 RMK A01 T10371083  RH  070%=      5-min Rain = 0
KUM1 120930Z 32007KT M04/M08 A30 RMK A01 T10381083  RH  071%=      5-min Rain = 0
KUM1 120931Z 31007KT M04/M08 A30 RMK A01 T10381083  RH  071%=      5-min Rain = 0
KUM1 120932Z 32007KT M04/M08 A30 RMK A01 T10381082  RH  071%=      5-min Rain = 0
KUM1 120933Z 32007KT M04/M08 A2999 RMK A01 T10371081  RH  071%=      5-min Rain = 0
KUM1 120934Z 31007KT M04/M08 A2999 RMK A01 T10371082  RH  071%=      5-min Rain = 0
KUM1 120935Z 31007KT M04/M08 A2999 RMK A01 T10371081  RH  071%=      5-min Rain = 0
KUM1 120936Z 31008KT M04/M08 A2999 RMK A01 T10371081  RH  071%=      5-min Rain = 0
KUM1 120937Z 31008KT M04/M08 A2999 RMK A01 T10361080  RH  072%=      5-min Rain = 0
KUM1 120938Z 31007KT M04/M08 A2999 RMK A01 T10361080  RH  072%=      5-min Rain = 0
KUM1 120939Z 31008KT M04/M08 A2999 RMK A01 T10361079  RH  072%=      5-min Rain = 0
KUM1 120940Z 31008KT M04/M08 A2999 RMK A01 T10361079  RH  072%=      5-min Rain = 0
KUM1 120941Z 32008KT M04/M08 A2999 RMK A01 T10381080  RH  072%=      5-min Rain = 0
KUM1 120942Z 32008KT M04/M08 A2999 RMK A01 T10381080  RH  073%=      5-min Rain = 0
KUM1 120943Z 32008KT M04/M08 A2999 RMK A01 T10371079  RH  073%=      5-min Rain = 0
KUM1 120944Z 32008KT M04/M08 A2999 RMK A01 T10371079  RH  072%=      5-min Rain = 0
KUM1 120945Z 32008KT M04/M08 A2999 RMK A01 T10371079  RH  072%=      5-min Rain = 0
KUM1 120946Z 32008KT M04/M08 A2999 RMK A01 T10371079  RH  072%=      5-min Rain = 0
KUM1 120947Z 32008KT M04/M08 A2999 RMK A01 T10381080  RH  073%=      5-min Rain = 0
KUM1 120948Z 32007KT M04/M08 A2999 RMK A01 T10391080  RH  073%=      5-min Rain = 0
KUM1 120949Z 32007KT M04/M08 A2999 RMK A01 T10391080  RH  073%=      5-min Rain = 0
KUM1 120950Z 32007KT M04/M08 A2999 RMK A01 T10391080  RH  073%=      5-min Rain = 0
KUM1 120951Z 32007KT M04/M08 A2999 RMK A01 T10391080  RH  073%=      5-min Rain = 0
KUM1 120952Z 32007KT M04/M08 A2999 RMK A01 T10391080  RH  073%=      5-min Rain = 0
KUM1 120953Z 32007KT M04/M08 A2999 RMK A01 T10401081  RH  073%=      5-min Rain = 0
KUM1 120954Z 32007KT M04/M08 A2999 RMK A01 T10411081  RH  073%=      5-min Rain = 0
KUM1 120955Z 32007KT M04/M08 A2998 RMK A01 T10421081  RH  074%=      5-min Rain = 0
KUM1 120956Z 32006KT M04/M08 A2998 RMK A01 T10421081  RH  074%=      5-min Rain = 0
KUM1 120957Z 32006KT M04/M08 A2998 RMK A01 T10431081  RH  074%=      5-min Rain = 0
KUM1 120958Z 32006KT M04/M08 A2998 RMK A01 T10431082  RH  075%=      5-min Rain = 0
KUM1 120959Z 32007KT M04/M08 A2998 RMK A01 T10441082  RH  075%=      5-min Rain = 0
KUM1 121000Z 32007KT M05/M08 A2998 RMK A01 T10451082  RH  075%=      5-min Rain = 0
KUM1 121001Z 32008KT M05/M08 A2998 RMK A01 T10461083  RH  075%=      5-min Rain = 0
KUM1 121002Z 32008KT M05/M08 A2998 RMK A01 T10461082  RH  076%=      5-min Rain = 0
KUM1 121003Z 32007KT M05/M08 A2998 RMK A01 T10471082  RH  076%=      5-min Rain = 0
KUM1 121004Z 32007KT M05/M08 A2998 RMK A01 T10471082  RH  077%=      5-min Rain = 0
KUM1 121005Z 32007KT M05/M08 A2998 RMK A01 T10471081  RH  077%=      5-min Rain = 0
KUM1 121006Z 32007KT M05/M08 A2998 RMK A01 T10471082  RH  077%=      5-min Rain = 0
KUM1 121007Z 32007KT M05/M08 A2998 RMK A01 T10461082  RH  076%=      5-min Rain = 0
KUM1 121008Z 32007KT M05/M08 A2998 RMK A01 T10471082  RH  076%=      5-min Rain = 0
KUM1 121009Z 32007KT M05/M08 A2997 RMK A01 T10471082  RH  076%=      5-min Rain = 0
KUM1 121010Z 32007KT M05/M08 A2997 RMK A01 T10471082  RH  077%=      5-min Rain = 0
KUM1 121011Z 31007KT M05/M08 A2997 RMK A01 T10471082  RH  077%=      5-min Rain = 0
KUM1 121012Z 31007KT M05/M08 A2997 RMK A01 T10471082  RH  077%=      5-min Rain = 0
KUM1 121013Z 31007KT M05/M08 A2997 RMK A01 T10481083  RH  077%=      5-min Rain = 0
KUM1 121014Z 32007KT M05/M08 A2997 RMK A01 T10491083  RH  077%=      5-min Rain = 0
KUM1 121015Z 32007KT M05/M08 A2997 RMK A01 T10501083  RH  077%=      5-min Rain = 0
KUM1 121016Z 32007KT M05/M08 A2997 RMK A01 T10501083  RH  078%=      5-min Rain = 0
KUM1 121017Z 31007KT M05/M08 A2997 RMK A01 T10501083  RH  078%=      5-min Rain = 0
KUM1 121018Z 31008KT M05/M08 A2997 RMK A01 T10501083  RH  078%=      5-min Rain = 0
KUM1 121019Z 31007KT M05/M08 A2997 RMK A01 T10501083  RH  078%=      5-min Rain = 0
KUM1 121020Z 31008KT M05/M08 A2997 RMK A01 T10501082  RH  078%=      5-min Rain = 0
KUM1 121021Z 31008KT M05/M08 A2997 RMK A01 T10501082  RH  078%=      5-min Rain = 0
KUM1 121022Z 31008KT M05/M08 A2997 RMK A01 T10501082  RH  078%=      5-min Rain = 0
KUM1 121023Z 31008KT M05/M08 A2997 RMK A01 T10491081  RH  078%=      5-min Rain = 0
KUM1 121024Z 31008KT M05/M08 A2997 RMK A01 T10491081  RH  078%=      5-min Rain = 0
KUM1 121025Z 31009KT M05/M08 A2997 RMK A01 T10481080  RH  078%=      5-min Rain = 0
KUM1 121026Z 31009KT M05/M08 A2997 RMK A01 T10471080  RH  078%=      5-min Rain = 0
KUM1 121027Z 31009KT M05/M08 A2997 RMK A01 T10471079  RH  078%=      5-min Rain = 0
KUM1 121028Z 32009KT M05/M08 A2997 RMK A01 T10461079  RH  077%=      5-min Rain = 0
KUM1 121029Z 31009KT M05/M08 A2997 RMK A01 T10451079  RH  077%=      5-min Rain = 0
KUM1 121030Z 31009KT M04/M08 A2997 RMK A01 T10441078  RH  077%=      5-min Rain = 0
KUM1 121031Z 31009KT M04/M08 A2997 RMK A01 T10431078  RH  076%=      5-min Rain = 0
KUM1 121032Z 31008KT M04/M08 A2997 RMK A01 T10421079  RH  076%=      5-min Rain = 0
KUM1 121033Z 31009KT M04/M08 A2997 RMK A01 T10421079  RH  076%=      5-min Rain = 0
KUM1 121034Z 31009KT M04/M08 A2997 RMK A01 T10421079  RH  075%=      5-min Rain = 0
KUM1 121035Z 31009KT M04/M08 A2997 RMK A01 T10421079  RH  075%=      5-min Rain = 0
KUM1 121036Z 31008KT M04/M08 A2997 RMK A01 T10421079  RH  075%=      5-min Rain = 0
KUM1 121037Z 31008KT M04/M08 A2997 RMK A01 T10421079  RH  076%=      5-min Rain = 0
KUM1 121038Z 31009KT M04/M08 A2997 RMK A01 T10421079  RH  076%=      5-min Rain = 0
KUM1 121039Z 31008KT M04/M08 A2997 RMK A01 T10421079  RH  076%=      5-min Rain = 0
KUM1 121040Z 31008KT M04/M08 A2997 RMK A01 T10421079  RH  076%=      5-min Rain = 0
KUM1 121041Z 31009KT M04/M08 A2997 RMK A01 T10421079  RH  076%=      5-min Rain = 0
KUM1 121042Z 31009KT M04/M08 A2997 RMK A01 T10421079  RH  075%=      5-min Rain = 0
KUM1 121043Z 32009KT M04/M08 A2997 RMK A01 T10421079  RH  076%=      5-min Rain = 0
KUM1 121044Z 32009KT M04/M08 A2996 RMK A01 T10421079  RH  076%=      5-min Rain = 0
KUM1 121045Z 32009KT M04/M08 A2996 RMK A01 T10421078  RH  076%=      5-min Rain = 0
KUM1 121046Z 31009KT M04/M08 A2996 RMK A01 T10421078  RH  076%=      5-min Rain = 0
KUM1 121047Z 31009KT M04/M08 A2996 RMK A01 T10431079  RH  076%=      5-min Rain = 0
KUM1 121048Z 31009KT M04/M08 A2996 RMK A01 T10431079  RH  076%=      5-min Rain = 0
KUM1 121049Z 31008KT M04/M08 A2996 RMK A01 T10431079  RH  076%=      5-min Rain = 0
KUM1 121050Z 31007KT M04/M08 A2996 RMK A01 T10431079  RH  076%=      5-min Rain = 0
KUM1 121051Z 31007KT M04/M08 A2996 RMK A01 T10431079  RH  076%=      5-min Rain = 0
KUM1 121052Z 31008KT M04/M08 A2996 RMK A01 T10441079  RH  076%=      5-min Rain = 0
KUM1 121053Z 31008KT M04/M08 A2996 RMK A01 T10441079  RH  076%=      5-min Rain = 0
KUM1 121054Z 31008KT M05/M08 A2996 RMK A01 T10451079  RH  077%=      5-min Rain = 0
KUM1 121055Z 31008KT M05/M08 A2996 RMK A01 T10451080  RH  077%=      5-min Rain = 0
KUM1 121056Z 31009KT M05/M08 A2996 RMK A01 T10461080  RH  077%=      5-min Rain = 0
KUM1 121057Z 31009KT M05/M08 A2996 RMK A01 T10471080  RH  077%=      5-min Rain = 0
KUM1 121058Z 31009KT M05/M08 A2996 RMK A01 T10471081  RH  077%=      5-min Rain = 0
KUM1 121059Z 32008KT M05/M08 A2996 RMK A01 T10471081  RH  077%=      5-min Rain = 0
KUM1 121100Z 32008KT M05/M08 A2996 RMK A01 T10471081  RH  077%=      5-min Rain = 0
KUM1 121101Z 32008KT M05/M08 A2996 RMK A01 T10481081  RH  078%=      5-min Rain = 0
KUM1 121102Z 31008KT M05/M08 A2996 RMK A01 T10481081  RH  078%=      5-min Rain = 0
KUM1 121103Z 31009KT M05/M08 A2996 RMK A01 T10491082  RH  078%=      5-min Rain = 0
KUM1 121104Z 31009KT M05/M08 A2996 RMK A01 T10491081  RH  078%=      5-min Rain = 0
KUM1 121105Z 31009KT M05/M08 A2996 RMK A01 T10491081  RH  078%=      5-min Rain = 0
KUM1 121106Z 31009KT M05/M08 A2996 RMK A01 T10491081  RH  078%=      5-min Rain = 0
KUM1 121107Z 31009KT M05/M08 A2996 RMK A01 T10491081  RH  078%=      5-min Rain = 0
KUM1 121108Z 31009KT M05/M08 A2996 RMK A01 T10481080  RH  078%=      5-min Rain = 0
KUM1 121109Z 31009KT M05/M08 A2996 RMK A01 T10481080  RH  078%=      5-min Rain = 0
KUM1 121110Z 31009KT M05/M08 A2996 RMK A01 T10481081  RH  078%=      5-min Rain = 0
KUM1 121111Z 31009KT M05/M08 A2996 RMK A01 T10481081  RH  078%=      5-min Rain = 0
KUM1 121112Z 31008KT M05/M08 A2996 RMK A01 T10471081  RH  078%=      5-min Rain = 0
KUM1 121113Z 31008KT M05/M08 A2996 RMK A01 T10481081  RH  078%=      5-min Rain = 0
KUM1 121114Z 31008KT M05/M08 A2997 RMK A01 T10481082  RH  078%=      5-min Rain = 0
KUM1 121115Z 31008KT M05/M08 A2997 RMK A01 T10491082  RH  078%=      5-min Rain = 0
KUM1 121116Z 31008KT M05/M08 A2997 RMK A01 T10481082  RH  078%=      5-min Rain = 0
KUM1 121117Z 31008KT M05/M08 A2997 RMK A01 T10491082  RH  078%=      5-min Rain = 0
KUM1 121118Z 31007KT M05/M08 A2997 RMK A01 T10491082  RH  078%=      5-min Rain = 0
KUM1 121119Z 30007KT M05/M08 A2996 RMK A01 T10481082  RH  077%=      5-min Rain = 0
KUM1 121120Z 30007KT M05/M08 A2996 RMK A01 T10481082  RH  077%=      5-min Rain = 0
KUM1 121121Z 30007KT M05/M08 A2996 RMK A01 T10481082  RH  077%=      5-min Rain = 0
KUM1 121122Z 31007KT M05/M08 A2996 RMK A01 T10481082  RH  077%=      5-min Rain = 0
KUM1 121123Z 31007KT M05/M08 A2996 RMK A01 T10481082  RH  077%=      5-min Rain = 0
KUM1 121124Z 31007KT M05/M08 A2996 RMK A01 T10481083  RH  077%=      5-min Rain = 0
KUM1 121125Z 31008KT M05/M08 A2996 RMK A01 T10481083  RH  077%=      5-min Rain = 0
KUM1 121126Z 31008KT M05/M08 A2996 RMK A01 T10481083  RH  077%=      5-min Rain = 0
KUM1 121127Z 31008KT M05/M08 A2996 RMK A01 T10491083  RH  077%=      5-min Rain = 0
KUM1 121128Z 31008KT M05/M08 A2996 RMK A01 T10491084  RH  077%=      5-min Rain = 0
KUM1 121129Z 31008KT M05/M08 A2996 RMK A01 T10491083  RH  077%=      5-min Rain = 0
KUM1 121130Z 31008KT M05/M08 A2996 RMK A01 T10491083  RH  077%=      5-min Rain = 0
KUM1 121131Z 30007KT M05/M08 A2996 RMK A01 T10491084  RH  077%=      5-min Rain = 0
KUM1 121132Z 29006KT M05/M08 A2996 RMK A01 T10491084  RH  077%=      5-min Rain = 0
KUM1 121133Z 29006KT M05/M08 A2996 RMK A01 T10491084  RH  077%=      5-min Rain = 0
KUM1 121134Z 29006KT M05/M08 A2996 RMK A01 T10491084  RH  077%=      5-min Rain = 0
KUM1 121135Z 29006KT M05/M08 A2996 RMK A01 T10491083  RH  077%=      5-min Rain = 0
KUM1 121136Z 29006KT M05/M08 A2996 RMK A01 T10491084  RH  077%=      5-min Rain = 0
KUM1 121137Z 30007KT M05/M08 A2996 RMK A01 T10491084  RH  077%=      5-min Rain = 0
KUM1 121138Z 29006KT M05/M08 A2996 RMK A01 T10491084  RH  077%=      5-min Rain = 0
KUM1 121139Z 30006KT M05/M08 A2996 RMK A01 T10481083  RH  076%=      5-min Rain = 0
KUM1 121140Z 29006KT M05/M08 A2996 RMK A01 T10481083  RH  076%=      5-min Rain = 0
KUM1 121141Z 29007KT M05/M08 A2996 RMK A01 T10481083  RH  076%=      5-min Rain = 0
KUM1 121142Z 29006KT M05/M08 A2996 RMK A01 T10481084  RH  076%=      5-min Rain = 0
KUM1 121143Z 29006KT M05/M08 A2996 RMK A01 T10481084  RH  076%=      5-min Rain = 0
KUM1 121144Z 29006KT M05/M08 A2996 RMK A01 T10481083  RH  076%=      5-min Rain = 0
KUM1 121145Z 29006KT M05/M08 A2996 RMK A01 T10481083  RH  076%=      5-min Rain = 0
KUM1 121146Z 29006KT M05/M08 A2996 RMK A01 T10481084  RH  076%=      5-min Rain = 0
KUM1 121147Z 30006KT M05/M08 A2996 RMK A01 T10491084  RH  076%=      5-min Rain = 0
KUM1 121148Z 33005KT M05/M08 A2996 RMK A01 T10491084  RH  077%=      5-min Rain = 0
KUM1 121149Z 33005KT M05/M08 A2996 RMK A01 T10491083  RH  077%=      5-min Rain = 0
KUM1 121150Z 33005KT M05/M08 A2996 RMK A01 T10491084  RH  077%=      5-min Rain = 0
KUM1 121151Z 33005KT M05/M08 A2997 RMK A01 T10491084  RH  076%=      5-min Rain = 0
KUM1 121152Z 33005KT M05/M08 A2997 RMK A01 T10491084  RH  076%=      5-min Rain = 0
KUM1 121153Z 33005KT M05/M08 A2997 RMK A01 T10481084  RH  076%=      5-min Rain = 0
KUM1 121154Z 32005KT M05/M08 A2997 RMK A01 T10491084  RH  076%=      5-min Rain = 0
KUM1 121155Z 33005KT M05/M08 A2996 RMK A01 T10491084  RH  076%=      5-min Rain = 0
KUM1 121156Z 31006KT M05/M08 A2996 RMK A01 T10491084  RH  076%=      5-min Rain = 0
KUM1 121157Z 30007KT M05/M08 A2996 RMK A01 T10491084  RH  076%=      5-min Rain = 0
KUM1 121158Z 30008KT M05/M08 A2996 RMK A01 T10491084  RH  076%=      5-min Rain = 0
KUM1 121159Z 30007KT M05/M08 A2996 RMK A01 T10491084  RH  076%=      5-min Rain = 0
KUM1 121200Z 30007KT M05/M08 A2996 RMK A01 T10491084  RH  077%=      5-min Rain = 0
KUM1 121201Z 30008KT M05/M08 A2996 RMK A01 T10491084  RH  077%=      5-min Rain = 0
KUM1 121202Z 30008KT M05/M09 A2997 RMK A01 T10501085  RH  077%=      5-min Rain = 0
KUM1 121203Z 30008KT M05/M09 A2997 RMK A01 T10501085  RH  077%=      5-min Rain = 0
KUM1 121204Z 30008KT M05/M09 A2997 RMK A01 T10501085  RH  077%=      5-min Rain = 0
KUM1 121205Z 30008KT M05/M09 A2997 RMK A01 T10511085  RH  077%=      5-min Rain = 0
KUM1 121206Z 30008KT M05/M09 A2997 RMK A01 T10511085  RH  077%=      5-min Rain = 0
KUM1 121207Z 30007KT M05/M09 A2997 RMK A01 T10501085  RH  077%=      5-min Rain = 0
KUM1 121208Z 30007KT M05/M09 A2997 RMK A01 T10501085  RH  077%=      5-min Rain = 0
KUM1 121209Z 30007KT M05/M09 A2997 RMK A01 T10501085  RH  077%=      5-min Rain = 0
KUM1 121210Z 30007KT M05/M09 A2997 RMK A01 T10511085  RH  077%=      5-min Rain = 0
KUM1 121211Z 30007KT M05/M09 A2997 RMK A01 T10511086  RH  077%=      5-min Rain = 0
KUM1 121212Z 30007KT M05/M09 A2997 RMK A01 T10521086  RH  077%=      5-min Rain = 0
KUM1 121213Z 31007KT M05/M09 A2996 RMK A01 T10521085  RH  077%=      5-min Rain = 0
KUM1 121214Z 30007KT M05/M09 A2996 RMK A01 T10521085  RH  078%=      5-min Rain = 0
KUM1 121215Z 30007KT M05/M09 A2996 RMK A01 T10521085  RH  078%=      5-min Rain = 0
KUM1 121216Z 30007KT M05/M09 A2996 RMK A01 T10521085  RH  078%=      5-min Rain = 0
KUM1 121217Z 30007KT M05/M09 A2996 RMK A01 T10521085  RH  078%=      5-min Rain = 0
KUM1 121218Z 30008KT M05/M08 A2996 RMK A01 T10511084  RH  077%=      5-min Rain = 0
KUM1 121219Z 30007KT M05/M08 A2996 RMK A01 T10501084  RH  077%=      5-min Rain = 0
KUM1 121220Z 30008KT M05/M08 A2996 RMK A01 T10491084  RH  077%=      5-min Rain = 0
KUM1 121221Z 30008KT M05/M08 A2996 RMK A01 T10491084  RH  076%=      5-min Rain = 0
KUM1 121222Z 30008KT M05/M09 A2996 RMK A01 T10491085  RH  076%=      5-min Rain = 0
KUM1 121223Z 30008KT M05/M08 A2996 RMK A01 T10481084  RH  076%=      5-min Rain = 0
KUM1 121224Z 29008KT M05/M08 A2996 RMK A01 T10481084  RH  076%=      5-min Rain = 0
KUM1 121225Z 29007KT M05/M09 A2996 RMK A01 T10481085  RH  076%=      5-min Rain = 0
KUM1 121226Z 29007KT M05/M09 A2996 RMK A01 T10501086  RH  076%=      5-min Rain = 0
KUM1 121227Z 29007KT M05/M09 A2996 RMK A01 T10511086  RH  076%=      5-min Rain = 0
KUM1 121228Z 29006KT M05/M09 A2996 RMK A01 T10521086  RH  077%=      5-min Rain = 0
KUM1 121229Z 29007KT M05/M09 A2996 RMK A01 T10531086  RH  078%=      5-min Rain = 0
KUM1 121230Z 29006KT M05/M09 A2996 RMK A01 T10541087  RH  078%=      5-min Rain = 0
KUM1 121231Z 29005KT M06/M09 A2996 RMK A01 T10551086  RH  079%=      5-min Rain = 0
KUM1 121232Z 29006KT M06/M09 A2996 RMK A01 T10551086  RH  079%=      5-min Rain = 0
KUM1 121233Z 29006KT M06/M09 A2996 RMK A01 T10551086  RH  079%=      5-min Rain = 0
KUM1 121234Z 29006KT M05/M09 A2996 RMK A01 T10541086  RH  079%=      5-min Rain = 0
KUM1 121235Z 29006KT M06/M09 A2996 RMK A01 T10551086  RH  079%=      5-min Rain = 0
KUM1 121236Z 30007KT M06/M09 A2996 RMK A01 T10551086  RH  079%=      5-min Rain = 0
KUM1 121237Z 29007KT M06/M09 A2995 RMK A01 T10551087  RH  079%=      5-min Rain = 0
KUM1 121238Z 29007KT M06/M09 A2995 RMK A01 T10561087  RH  079%=      5-min Rain = 0
KUM1 121239Z 29006KT M06/M09 A2995 RMK A01 T10571088  RH  079%=      5-min Rain = 0
KUM1 121240Z 29006KT M06/M09 A2995 RMK A01 T10581088  RH  079%=      5-min Rain = 0
KUM1 121241Z 29006KT M06/M09 A2995 RMK A01 T10581088  RH  080%=      5-min Rain = 0
KUM1 121242Z 30007KT M06/M09 A2995 RMK A01 T10581088  RH  080%=      5-min Rain = 0
KUM1 121243Z 30007KT M06/M09 A2995 RMK A01 T10581088  RH  080%=      5-min Rain = 0
KUM1 121244Z 30007KT M06/M09 A2995 RMK A01 T10581087  RH  080%=      5-min Rain = 0
KUM1 121245Z 30007KT M06/M09 A2995 RMK A01 T10581087  RH  080%=      5-min Rain = 0
KUM1 121246Z 30007KT M06/M09 A2995 RMK A01 T10571087  RH  080%=      5-min Rain = 0
KUM1 121247Z 31006KT M06/M09 A2995 RMK A01 T10561086  RH  079%=      5-min Rain = 0
KUM1 121248Z 30006KT M06/M09 A2995 RMK A01 T10551085  RH  079%=      5-min Rain = 0
KUM1 121249Z 30006KT M05/M09 A2995 RMK A01 T10541086  RH  079%=      5-min Rain = 0
KUM1 121250Z 30006KT M05/M09 A2995 RMK A01 T10541086  RH  078%=      5-min Rain = 0
KUM1 121251Z 30006KT M05/M09 A2995 RMK A01 T10541086  RH  078%=      5-min Rain = 0
KUM1 121252Z 30006KT M05/M09 A2994 RMK A01 T10541086  RH  078%=      5-min Rain = 0
KUM1 121253Z 30006KT M05/M09 A2994 RMK A01 T10541086  RH  078%=      5-min Rain = 0
KUM1 121254Z 29006KT M05/M09 A2994 RMK A01 T10541086  RH  078%=      5-min Rain = 0
KUM1 121255Z 30006KT M06/M09 A2994 RMK A01 T10551087  RH  078%=      5-min Rain = 0
KUM1 121256Z 30006KT M06/M09 A2995 RMK A01 T10561087  RH  079%=      5-min Rain = 0
KUM1 121257Z 30006KT M06/M09 A2995 RMK A01 T10571088  RH  079%=      5-min Rain = 0
KUM1 121258Z 30006KT M06/M09 A2995 RMK A01 T10581088  RH  079%=      5-min Rain = 0
KUM1 121259Z 30006KT M06/M09 A2995 RMK A01 T10591089  RH  080%=      5-min Rain = 0
KUM1 121300Z 30006KT M06/M09 A2995 RMK A01 T10601089  RH  080%=      5-min Rain = 0
KUM1 121301Z 30006KT M06/M09 A2995 RMK A01 T10601089  RH  080%=      5-min Rain = 0
KUM1 121302Z 29006KT M06/M09 A2995 RMK A01 T10611089  RH  081%=      5-min Rain = 0
KUM1 121303Z 29006KT M06/M09 A2995 RMK A01 T10611089  RH  081%=      5-min Rain = 0
KUM1 121304Z 29006KT M06/M09 A2995 RMK A01 T10621089  RH  081%=      5-min Rain = 0
KUM1 121305Z 29006KT M06/M09 A2994 RMK A01 T10631090  RH  081%=      5-min Rain = 0
KUM1 121306Z 29006KT M06/M09 A2994 RMK A01 T10631090  RH  081%=      5-min Rain = 0
KUM1 121307Z 29006KT M06/M09 A2995 RMK A01 T10631089  RH  082%=      5-min Rain = 0
KUM1 121308Z 30006KT M06/M09 A2995 RMK A01 T10631088  RH  082%=      5-min Rain = 0
KUM1 121309Z 30007KT M06/M09 A2995 RMK A01 T10631088  RH  082%=      5-min Rain = 0
KUM1 121310Z 30007KT M06/M09 A2994 RMK A01 T10621088  RH  082%=      5-min Rain = 0
KUM1 121311Z 29007KT M06/M09 A2994 RMK A01 T10621088  RH  082%=      5-min Rain = 0
KUM1 121312Z 30007KT M06/M09 A2994 RMK A01 T10621088  RH  082%=      5-min Rain = 0
KUM1 121313Z 30006KT M06/M09 A2994 RMK A01 T10621088  RH  082%=      5-min Rain = 0
KUM1 121314Z 30007KT M06/M09 A2994 RMK A01 T10621088  RH  082%=      5-min Rain = 0
KUM1 121315Z 30007KT M06/M09 A2994 RMK A01 T10621088  RH  082%=      5-min Rain = 0
KUM1 121316Z 30007KT M06/M09 A2994 RMK A01 T10621088  RH  082%=      5-min Rain = 0
KUM1 121317Z 30007KT M06/M09 A2994 RMK A01 T10621089  RH  082%=      5-min Rain = 0
KUM1 121318Z 30006KT M06/M09 A2994 RMK A01 T10621089  RH  082%=      5-min Rain = 0
KUM1 121319Z 29006KT M06/M09 A2994 RMK A01 T10621089  RH  082%=      5-min Rain = 0
KUM1 121320Z 29006KT M06/M09 A2994 RMK A01 T10631089  RH  082%=      5-min Rain = 0
KUM1 121321Z 29006KT M06/M09 A2994 RMK A01 T10631089  RH  082%=      5-min Rain = 0
KUM1 121322Z 29006KT M06/M09 A2994 RMK A01 T10631089  RH  082%=      5-min Rain = 0
KUM1 121323Z 30006KT M06/M09 A2994 RMK A01 T10621088  RH  082%=      5-min Rain = 0
KUM1 121324Z 29006KT M06/M09 A2994 RMK A01 T10621088  RH  082%=      5-min Rain = 0
KUM1 121325Z 29006KT M06/M09 A2994 RMK A01 T10631089  RH  082%=      5-min Rain = 0
KUM1 121326Z 29006KT M06/M09 A2994 RMK A01 T10631089  RH  082%=      5-min Rain = 0
KUM1 121327Z 30006KT M06/M09 A2994 RMK A01 T10631089  RH  082%=      5-min Rain = 0
KUM1 121328Z 30007KT M06/M09 A2994 RMK A01 T10631089  RH  082%=      5-min Rain = 0
KUM1 121329Z 30007KT M06/M09 A2994 RMK A01 T10641089  RH  082%=      5-min Rain = 0
KUM1 121330Z 30007KT M06/M09 A2994 RMK A01 T10641089  RH  082%=      5-min Rain = 0
KUM1 121331Z 30007KT M06/M09 A2994 RMK A01 T10641090  RH  082%=      5-min Rain = 0
KUM1 121332Z 30007KT M06/M09 A2994 RMK A01 T10641089  RH  083%=      5-min Rain = 0
KUM1 121333Z 30007KT M07/M09 A2994 RMK A01 T10651089  RH  083%=      5-min Rain = 0
KUM1 121334Z 30007KT M06/M09 A2994 RMK A01 T10641089  RH  083%=      5-min Rain = 0
KUM1 121335Z 30007KT M06/M09 A2994 RMK A01 T10641089  RH  083%=      5-min Rain = 0
KUM1 121336Z 30007KT M06/M09 A2994 RMK A01 T10631088  RH  083%=      5-min Rain = 0
KUM1 121337Z 30007KT M06/M09 A2994 RMK A01 T10621087  RH  083%=      5-min Rain = 0
KUM1 121338Z 30007KT M06/M09 A2994 RMK A01 T10611087  RH  082%=      5-min Rain = 0
KUM1 121339Z 30007KT M06/M09 A2994 RMK A01 T10611087  RH  082%=      5-min Rain = 0
KUM1 121340Z 30007KT M06/M09 A2994 RMK A01 T10601086  RH  082%=      5-min Rain = 0
KUM1 121341Z 30007KT M06/M09 A2994 RMK A01 T10601086  RH  082%=      5-min Rain = 0
KUM1 121342Z 30007KT M06/M09 A2994 RMK A01 T10601086  RH  081%=      5-min Rain = 0
KUM1 121343Z 30007KT M06/M09 A2994 RMK A01 T10601087  RH  081%=      5-min Rain = 0
KUM1 121344Z 30007KT M06/M09 A2994 RMK A01 T10601087  RH  081%=      5-min Rain = 0
KUM1 121345Z 30007KT M06/M09 A2994 RMK A01 T10601087  RH  082%=      5-min Rain = 0
KUM1 121346Z 30007KT M06/M09 A2994 RMK A01 T10601086  RH  082%=      5-min Rain = 0
KUM1 121347Z 30007KT M06/M09 A2994 RMK A01 T10601087  RH  082%=      5-min Rain = 0
KUM1 121348Z 31007KT M06/M09 A2994 RMK A01 T10611087  RH  082%=      5-min Rain = 0
KUM1 121349Z 30006KT M06/M09 A2994 RMK A01 T10611087  RH  082%=      5-min Rain = 0
KUM1 121350Z 30006KT M06/M09 A2994 RMK A01 T10611087  RH  082%=      5-min Rain = 0
KUM1 121351Z 30006KT M06/M09 A2994 RMK A01 T10611087  RH  082%=      5-min Rain = 0
KUM1 121352Z 29005KT M06/M09 A2994 RMK A01 T10621088  RH  082%=      5-min Rain = 0
KUM1 121353Z 29005KT M06/M09 A2994 RMK A01 T10621088  RH  082%=      5-min Rain = 0
KUM1 121354Z 29005KT M06/M09 A2994 RMK A01 T10621088  RH  082%=      5-min Rain = 0
KUM1 121355Z 29005KT M06/M09 A2994 RMK A01 T10631088  RH  082%=      5-min Rain = 0
KUM1 121356Z 29005KT M06/M09 A2994 RMK A01 T10631088  RH  083%=      5-min Rain = 0
KUM1 121357Z 29006KT M06/M09 A2994 RMK A01 T10631087  RH  083%=      5-min Rain = 0
KUM1 121358Z 29006KT M06/M09 A2994 RMK A01 T10621087  RH  083%=      5-min Rain = 0
KUM1 121359Z 29006KT M06/M09 A2994 RMK A01 T10601086  RH  082%=      5-min Rain = 0
KUM1 121400Z 29006KT M06/M09 A2994 RMK A01 T10591086  RH  082%=      5-min Rain = 0
KUM1 121401Z 29006KT M06/M09 A2994 RMK A01 T10591086  RH  081%=      5-min Rain = 0
KUM1 121402Z 28005KT M06/M09 A2994 RMK A01 T10591087  RH  081%=      5-min Rain = 0
KUM1 121403Z 28004KT M06/M09 A2994 RMK A01 T10591087  RH  080%=      5-min Rain = 0
KUM1 121404Z 27004KT M06/M09 A2994 RMK A01 T10591087  RH  080%=      5-min Rain = 0
KUM1 121405Z 27004KT M06/M09 A2995 RMK A01 T10591087  RH  081%=      5-min Rain = 0
KUM1 121406Z 27004KT M06/M09 A2994 RMK A01 T10591086  RH  081%=      5-min Rain = 0
KUM1 121407Z 27004KT M06/M09 A2994 RMK A01 T10571085  RH  081%=      5-min Rain = 0
KUM1 121408Z 27004KT M06/M08 A2994 RMK A01 T10561084  RH  081%=      5-min Rain = 0
KUM1 121409Z 27004KT M06/M08 A2994 RMK A01 T10551084  RH  080%=      5-min Rain = 0
KUM1 121410Z 27004KT M05/M08 A2994 RMK A01 T10541084  RH  079%=      5-min Rain = 0
KUM1 121411Z 27005KT M05/M08 A2994 RMK A01 T10531084  RH  079%=      5-min Rain = 0
KUM1 121412Z 27004KT M05/M09 A2994 RMK A01 T10531085  RH  079%=      5-min Rain = 0
KUM1 121413Z 28005KT M05/M09 A2994 RMK A01 T10531085  RH  078%=      5-min Rain = 0
KUM1 121414Z 28005KT M05/M08 A2994 RMK A01 T10521084  RH  078%=      5-min Rain = 0
KUM1 121415Z 28006KT M05/M08 A2994 RMK A01 T10521084  RH  078%=      5-min Rain = 0
KUM1 121416Z 28006KT M05/M08 A2994 RMK A01 T10521084  RH  078%=      5-min Rain = 0
KUM1 121417Z 28006KT M05/M08 A2994 RMK A01 T10511084  RH  078%=      5-min Rain = 0
KUM1 121418Z 28006KT M05/M08 A2994 RMK A01 T10501083  RH  078%=      5-min Rain = 0
KUM1 121419Z 28005KT M05/M08 A2994 RMK A01 T10501082  RH  078%=      5-min Rain = 0
KUM1 121420Z 28005KT M05/M08 A2994 RMK A01 T10491082  RH  078%=      5-min Rain = 0
KUM1 121421Z 28005KT M05/M08 A2994 RMK A01 T10481081  RH  078%=      5-min Rain = 0
KUM1 121422Z 28005KT M05/M08 A2994 RMK A01 T10471081  RH  077%=      5-min Rain = 0
KUM1 121423Z 28005KT M05/M08 A2994 RMK A01 T10461080  RH  077%=      5-min Rain = 0
KUM1 121424Z 27005KT M05/M08 A2994 RMK A01 T10451080  RH  076%=      5-min Rain = 0
KUM1 121425Z 26005KT M04/M08 A2994 RMK A01 T10441080  RH  076%=      5-min Rain = 0
KUM1 121426Z 25005KT M04/M08 A2994 RMK A01 T10441080  RH  076%=      5-min Rain = 0
KUM1 121427Z 25005KT M04/M08 A2994 RMK A01 T10431080  RH  075%=      5-min Rain = 0
KUM1 121428Z 24005KT M04/M08 A2994 RMK A01 T10421080  RH  075%=      5-min Rain = 0
KUM1 121429Z 23006KT M04/M08 A2994 RMK A01 T10411079  RH  075%=      5-min Rain = 0
KUM1 121430Z 24006KT M04/M08 A2994 RMK A01 T10411079  RH  075%=      5-min Rain = 0
KUM1 121431Z 23006KT M04/M08 A2994 RMK A01 T10411079  RH  075%=      5-min Rain = 0
KUM1 121432Z 23006KT M04/M08 A2994 RMK A01 T10411079  RH  075%=      5-min Rain = 0
KUM1 121433Z 22006KT M04/M08 A2994 RMK A01 T10411078  RH  075%=      5-min Rain = 0
KUM1 121434Z 23006KT M04/M08 A2994 RMK A01 T10401076  RH  076%=      5-min Rain = 0
KUM1 121435Z 23006KT M04/M08 A2994 RMK A01 T10401077  RH  076%=      5-min Rain = 0
KUM1 121436Z 22006KT M04/M08 A2994 RMK A01 T10391076  RH  076%=      5-min Rain = 0
KUM1 121437Z 23007KT M04/M08 A2994 RMK A01 T10391075  RH  076%=      5-min Rain = 0
KUM1 121438Z 24006KT M04/M08 A2994 RMK A01 T10381075  RH  076%=      5-min Rain = 0
KUM1 121439Z 25005KT M04/M08 A2994 RMK A01 T10371075  RH  075%=      5-min Rain = 0
KUM1 121440Z 24005KT M04/M08 A2994 RMK A01 T10371075  RH  074%=      5-min Rain = 0
KUM1 121441Z 24005KT M04/M08 A2994 RMK A01 T10361075  RH  074%=      5-min Rain = 0
KUM1 121442Z 24006KT M04/M08 A2994 RMK A01 T10351075  RH  074%=      5-min Rain = 0
KUM1 121443Z 24006KT M03/M07 A2994 RMK A01 T10341074  RH  074%=      5-min Rain = 0
KUM1 121444Z 24006KT M03/M07 A2994 RMK A01 T10331074  RH  073%=      5-min Rain = 0
KUM1 121445Z 24006KT M03/M07 A2994 RMK A01 T10331074  RH  073%=      5-min Rain = 0
KUM1 121446Z 24006KT M03/M07 A2994 RMK A01 T10321073  RH  073%=      5-min Rain = 0
KUM1 121447Z 24006KT M03/M07 A2994 RMK A01 T10311074  RH  072%=      5-min Rain = 0
KUM1 121448Z 24006KT M03/M08 A2994 RMK A01 T10311075  RH  072%=      5-min Rain = 0
KUM1 121449Z 24006KT M03/M07 A2994 RMK A01 T10311074  RH  072%=      5-min Rain = 0
KUM1 121450Z 24006KT M03/M07 A2994 RMK A01 T10301074  RH  072%=      5-min Rain = 0
KUM1 121451Z 24005KT M03/M07 A2994 RMK A01 T10291073  RH  071%=      5-min Rain = 0
KUM1 121452Z 24006KT M03/M07 A2994 RMK A01 T10281073  RH  071%=      5-min Rain = 0
KUM1 121453Z 24006KT M03/M07 A2994 RMK A01 T10271073  RH  071%=      5-min Rain = 0
KUM1 121454Z 24006KT M03/M07 A2994 RMK A01 T10261073  RH  070%=      5-min Rain = 0
KUM1 121455Z 24006KT M03/M07 A2994 RMK A01 T10261073  RH  070%=      5-min Rain = 0
KUM1 121456Z 24006KT M03/M07 A2994 RMK A01 T10251073  RH  070%=      5-min Rain = 0
KUM1 121457Z 24007KT M03/M07 A2994 RMK A01 T10251072  RH  070%=      5-min Rain = 0
KUM1 121458Z 24006KT M03/M07 A2994 RMK A01 T10251073  RH  070%=      5-min Rain = 0
KUM1 121459Z 25005KT M03/M07 A2994 RMK A01 T10251072  RH  070%=      5-min Rain = 0
KUM1 121500Z 24005KT M03/M07 A2994 RMK A01 T10251072  RH  070%=      5-min Rain = 0
KUM1 121501Z 24004KT M03/M07 A2993 RMK A01 T10251072  RH  070%=      5-min Rain = 0
KUM1 121502Z 23004KT M02/M07 A2993 RMK A01 T10241070  RH  071%=      5-min Rain = 0
KUM1 121503Z 25003KT M02/M07 A2993 RMK A01 T10231069  RH  071%=      5-min Rain = 0
KUM1 121504Z 24003KT M02/M07 A2993 RMK A01 T10231069  RH  071%=      5-min Rain = 0
KUM1 121505Z 24004KT M02/M07 A2993 RMK A01 T10221068  RH  070%=      5-min Rain = 0
KUM1 121506Z 23004KT M02/M07 A2993 RMK A01 T10211068  RH  070%=      5-min Rain = 0
KUM1 121507Z 23004KT M02/M07 A2993 RMK A01 T10191067  RH  070%=      5-min Rain = 0
KUM1 121508Z 23004KT M02/M07 A2993 RMK A01 T10191068  RH  069%=      5-min Rain = 0
KUM1 121509Z 22005KT M02/M07 A2993 RMK A01 T10181068  RH  069%=      5-min Rain = 0
KUM1 121510Z 23005KT M02/M07 A2993 RMK A01 T10181068  RH  069%=      5-min Rain = 0
KUM1 121511Z 23005KT M02/M07 A2993 RMK A01 T10171066  RH  069%=      5-min Rain = 0
KUM1 121512Z 24005KT M02/M07 A2993 RMK A01 T10151065  RH  069%=      5-min Rain = 0
KUM1 121513Z 23004KT M01/M07 A2993 RMK A01 T10141065  RH  068%=      5-min Rain = 0
KUM1 121514Z 23004KT M01/M07 A2993 RMK A01 T10131065  RH  068%=      5-min Rain = 0
KUM1 121515Z 24004KT M01/M07 A2993 RMK A01 T10121065  RH  068%=      5-min Rain = 0
KUM1 121516Z 23004KT M01/M06 A2993 RMK A01 T10121064  RH  067%=      5-min Rain = 0
KUM1 121517Z 23005KT M01/M07 A2993 RMK A01 T10111065  RH  067%=      5-min Rain = 0
KUM1 121518Z 24005KT M01/M07 A2993 RMK A01 T10111066  RH  066%=      5-min Rain = 0
KUM1 121519Z 24004KT M01/M07 A2993 RMK A01 T10101065  RH  066%=      5-min Rain = 0
KUM1 121520Z 25004KT M01/M06 A2993 RMK A01 T10081062  RH  067%=      5-min Rain = 0
KUM1 121521Z 24004KT M01/M06 A2993 RMK A01 T10061061  RH  066%=      5-min Rain = 0
KUM1 121522Z 25004KT M01/M06 A2993 RMK A01 T10051061  RH  066%=      5-min Rain = 0
KUM1 121523Z 24004KT M00/M06 A2993 RMK A01 T10041062  RH  065%=      5-min Rain = 0
KUM1 121524Z 24004KT M00/M06 A2993 RMK A01 T10041062  RH  065%=      5-min Rain = 0
KUM1 121525Z 24004KT M00/M06 A2992 RMK A01 T10021062  RH  064%=      5-min Rain = 0
KUM1 121526Z 24004KT M00/M06 A2992 RMK A01 T10011062  RH  063%=      5-min Rain = 0
KUM1 121527Z 24003KT 00/06 A2993 RMK A01 T00000-62  RH  063%=      5-min Rain = 0
KUM1 121528Z 24003KT 00/M06 A2993 RMK A01 T00021061  RH  063%=      5-min Rain = 0
KUM1 121529Z 24004KT 00/M06 A2993 RMK A01 T00041059  RH  063%=      5-min Rain = 0
KUM1 121530Z 24003KT 01/M06 A2992 RMK A01 T00051060  RH  062%=      5-min Rain = 0
KUM1 121531Z 24003KT 01/M06 A2992 RMK A01 T00071058  RH  062%=      5-min Rain = 0
KUM1 121532Z 25004KT 01/M06 A2992 RMK A01 T00091059  RH  061%=      5-min Rain = 0
KUM1 121533Z 24004KT 01/M06 A2992 RMK A01 T00091061  RH  060%=      5-min Rain = 0
KUM1 121534Z 24004KT 01/M06 A2992 RMK A01 T00101061  RH  059%=      5-min Rain = 0
KUM1 121535Z 24003KT 01/M06 A2992 RMK A01 T00111060  RH  059%=      5-min Rain = 0
KUM1 121536Z 25004KT 01/M06 A2992 RMK A01 T00121059  RH  059%=      5-min Rain = 0
KUM1 121537Z 25004KT 01/M06 A2992 RMK A01 T00131058  RH  059%=      5-min Rain = 0
KUM1 121538Z 25005KT 01/M06 A2992 RMK A01 T00141059  RH  058%=      5-min Rain = 0
KUM1 121539Z 24004KT 02/M06 A2992 RMK A01 T00151058  RH  058%=      5-min Rain = 0
KUM1 121540Z 25005KT 02/M06 A2992 RMK A01 T00161058  RH  058%=      5-min Rain = 0
KUM1 121541Z 24004KT 02/M06 A2992 RMK A01 T00161059  RH  057%=      5-min Rain = 0
KUM1 121542Z 25004KT 02/M06 A2992 RMK A01 T00171058  RH  057%=      5-min Rain = 0
KUM1 121543Z 24004KT 02/M06 A2992 RMK A01 T00181058  RH  057%=      5-min Rain = 0
KUM1 121544Z 24004KT 02/M06 A2992 RMK A01 T00191056  RH  057%=      5-min Rain = 0
KUM1 121545Z 24004KT 02/M06 A2992 RMK A01 T00211056  RH  057%=      5-min Rain = 0
KUM1 121546Z 24005KT 02/M06 A2992 RMK A01 T00221055  RH  057%=      5-min Rain = 0
KUM1 121547Z 24005KT 02/M06 A2992 RMK A01 T00231055  RH  057%=      5-min Rain = 0
KUM1 121548Z 23005KT 02/M05 A2992 RMK A01 T00241052  RH  057%=      5-min Rain = 0
KUM1 121549Z 24005KT 03/M05 A2992 RMK A01 T00251054  RH  056%=      5-min Rain = 0
KUM1 121550Z 23004KT 03/M05 A2992 RMK A01 T00261051  RH  056%=      5-min Rain = 0
KUM1 121551Z 23005KT 03/M05 A2992 RMK A01 T00281051  RH  056%=      5-min Rain = 0
KUM1 121552Z 23004KT 03/M05 A2992 RMK A01 T00301051  RH  055%=      5-min Rain = 0
KUM1 121553Z 23005KT 03/M05 A2992 RMK A01 T00311051  RH  055%=      5-min Rain = 0
KUM1 121554Z 22006KT 03/M05 A2992 RMK A01 T00321051  RH  054%=      5-min Rain = 0
KUM1 121555Z 23006KT 03/M05 A2992 RMK A01 T00331051  RH  054%=      5-min Rain = 0
KUM1 121556Z 22005KT 03/M05 A2992 RMK A01 T00331051  RH  054%=      5-min Rain = 0
KUM1 121557Z 23005KT 03/M05 A2992 RMK A01 T00341050  RH  054%=      5-min Rain = 0
KUM1 121558Z 22005KT 04/M05 A2992 RMK A01 T00351051  RH  053%=      5-min Rain = 0
KUM1 121559Z 22005KT 04/M05 A2992 RMK A01 T00361051  RH  053%=      5-min Rain = 0
KUM1 121600Z 22005KT 04/M05 A2992 RMK A01 T00371048  RH  054%=      5-min Rain = 0
KUM1 121601Z 22005KT 04/M05 A2992 RMK A01 T00401045  RH  054%=      5-min Rain = 0
KUM1 121602Z 22005KT 04/M05 A2992 RMK A01 T00411047  RH  053%=      5-min Rain = 0
KUM1 121603Z 22005KT 04/M05 A2992 RMK A01 T00421047  RH  052%=      5-min Rain = 0
KUM1 121604Z 23006KT 04/M05 A2992 RMK A01 T00431047  RH  052%=      5-min Rain = 0
KUM1 121605Z 22006KT 04/M05 A2991 RMK A01 T00431049  RH  051%=      5-min Rain = 0
KUM1 121606Z 22006KT 04/M05 A2991 RMK A01 T00441046  RH  052%=      5-min Rain = 0
KUM1 121607Z 23006KT 05/M05 A2991 RMK A01 T00461046  RH  051%=      5-min Rain = 0
KUM1 121608Z 23005KT 05/M05 A2991 RMK A01 T00471048  RH  050%=      5-min Rain = 0
KUM1 121609Z 22006KT 05/M05 A2991 RMK A01 T00481048  RH  050%=      5-min Rain = 0
KUM1 121610Z 22006KT 05/M05 A2991 RMK A01 T00481048  RH  050%=      5-min Rain = 0
KUM1 121611Z 22007KT 05/M05 A2991 RMK A01 T00481050  RH  049%=      5-min Rain = 0
KUM1 121612Z 22006KT 05/M05 A2991 RMK A01 T00481050  RH  049%=      5-min Rain = 0
KUM1 121613Z 23005KT 05/M05 A2991 RMK A01 T00491050  RH  049%=      5-min Rain = 0
KUM1 121614Z 22006KT 05/M05 A2991 RMK A01 T00501050  RH  048%=      5-min Rain = 0
KUM1 121615Z 24006KT 05/M05 A2991 RMK A01 T00521049  RH  048%=      5-min Rain = 0
KUM1 121616Z 23006KT 05/M05 A2992 RMK A01 T00541050  RH  047%=      5-min Rain = 0
KUM1 121617Z 22006KT 06/M05 A2992 RMK A01 T00551049  RH  047%=      5-min Rain = 0
KUM1 121618Z 23007KT 06/M05 A2992 RMK A01 T00561049  RH  047%=      5-min Rain = 0
KUM1 121619Z 24006KT 06/M05 A2992 RMK A01 T00571052  RH  046%=      5-min Rain = 0
KUM1 121620Z 24005KT 06/M05 A2991 RMK A01 T00561049  RH  047%=      5-min Rain = 0
KUM1 121621Z 24006KT 06/M05 A2991 RMK A01 T00571048  RH  047%=      5-min Rain = 0
KUM1 121622Z 24007KT 06/M05 A2991 RMK A01 T00571050  RH  046%=      5-min Rain = 0
KUM1 121623Z 24007KT 06/M05 A2991 RMK A01 T00581053  RH  045%=      5-min Rain = 0
KUM1 121624Z 24007KT 06/M05 A2991 RMK A01 T00581053  RH  045%=      5-min Rain = 0
KUM1 121625Z 23006KT 06/M05 A2991 RMK A01 T00591053  RH  044%=      5-min Rain = 0
KUM1 121626Z 23006KT 06/M05 A2991 RMK A01 T00611050  RH  045%=      5-min Rain = 0
KUM1 121627Z 23006KT 06/M05 A2991 RMK A01 T00631048  RH  045%=      5-min Rain = 0
KUM1 121628Z 23008KT 07/M05 A2991 RMK A01 T00651052  RH  043%=      5-min Rain = 0
KUM1 121629Z 23008KT 06/M06 A2991 RMK A01 T00641057  RH  042%=      5-min Rain = 0
KUM1 121630Z 23007KT 06/M06 A2991 RMK A01 T00631056  RH  042%=      5-min Rain = 0
KUM1 121631Z 22006KT 06/M05 A2991 RMK A01 T00641049  RH  044%=      5-min Rain = 0
KUM1 121632Z 23006KT 06/M05 A2991 RMK A01 T00641052  RH  043%=      5-min Rain = 0
KUM1 121633Z 23008KT 06/M05 A2991 RMK A01 T00641052  RH  043%=      5-min Rain = 0
KUM1 121634Z 23006KT 07/M05 A2991 RMK A01 T00651053  RH  042%=      5-min Rain = 0
KUM1 121635Z 23006KT 07/M05 A2991 RMK A01 T00671050  RH  043%=      5-min Rain = 0
KUM1 121636Z 23008KT 07/M05 A2991 RMK A01 T00691052  RH  042%=      5-min Rain = 0
KUM1 121637Z 23008KT 07/M06 A2991 RMK A01 T00711055  RH  040%=      5-min Rain = 0
KUM1 121638Z 23008KT 07/M06 A2991 RMK A01 T00721056  RH  040%=      5-min Rain = 0
KUM1 121639Z 23006KT 07/M06 A2991 RMK A01 T00731058  RH  039%=      5-min Rain = 0
KUM1 121640Z 23008KT 07/M05 A2991 RMK A01 T00741053  RH  040%=      5-min Rain = 0
KUM1 121641Z 22009KT 08/M06 A2991 RMK A01 T00751059  RH  038%=      5-min Rain = 0
KUM1 121642Z 23008KT 07/M06 A2991 RMK A01 T00741060  RH  038%=      5-min Rain = 0
KUM1 121643Z 22008KT 07/M06 A2991 RMK A01 T00731058  RH  039%=      5-min Rain = 0
KUM1 121644Z 22008KT 07/M05 A2991 RMK A01 T00721054  RH  040%=      5-min Rain = 0
KUM1 121645Z 22009KT 07/M05 A2991 RMK A01 T00741052  RH  040%=      5-min Rain = 0
KUM1 121646Z 23009KT 07/M06 A2991 RMK A01 T00721056  RH  040%=      5-min Rain = 0
KUM1 121647Z 22009KT 07/M06 A2991 RMK A01 T00721055  RH  040%=      5-min Rain = 0
KUM1 121648Z 22009KT 07/M05 A2991 RMK A01 T00731049  RH  042%=      5-min Rain = 0
KUM1 121649Z 22009KT 08/M05 A2991 RMK A01 T00761047  RH  041%=      5-min Rain = 0
KUM1 121650Z 21009KT 08/M05 A2991 RMK A01 T00781047  RH  041%=      5-min Rain = 0
KUM1 121651Z 22010KT 08/M05 A299 RMK A01 T00801048  RH  040%=      5-min Rain = 0
KUM1 121652Z 22010KT 08/M05 A299 RMK A01 T00801052  RH  039%=      5-min Rain = 0
KUM1 121653Z 21009KT 08/M05 A299 RMK A01 T00781050  RH  040%=      5-min Rain = 0
KUM1 121654Z 20009KT 08/M05 A299 RMK A01 T00791048  RH  040%=      5-min Rain = 0
KUM1 121655Z 21009KT 08/M05 A299 RMK A01 T00791047  RH  040%=      5-min Rain = 0
KUM1 121656Z 21010KT 08/M05 A299 RMK A01 T00811050  RH  039%=      5-min Rain = 0
KUM1 121657Z 22009KT 08/M05 A299 RMK A01 T00811051  RH  039%=      5-min Rain = 0
KUM1 121658Z 23009KT 08/M05 A299 RMK A01 T00831053  RH  038%=      5-min Rain = 0
KUM1 121659Z 21009KT 09/M05 A299 RMK A01 T00851054  RH  037%=      5-min Rain = 0
KUM1 121700Z 21008KT 09/M05 A299 RMK A01 T00861048  RH  038%=      5-min Rain = 0
KUM1 121701Z 21010KT 09/M05 A299 RMK A01 T00881048  RH  038%=      5-min Rain = 0
KUM1 121702Z 22011KT 09/M05 A299 RMK A01 T00881053  RH  036%=      5-min Rain = 0
KUM1 121703Z 23009KT 09/M06 A299 RMK A01 T00891059  RH  035%=      5-min Rain = 0
KUM1 121704Z 21011KT 09/M05 A299 RMK A01 T00891054  RH  036%=      5-min Rain = 0
KUM1 121705Z 22012KT 09/M06 A299 RMK A01 T00901057  RH  035%=      5-min Rain = 0
KUM1 121706Z 22010KT 09/M06 A299 RMK A01 T00891062  RH  034%=      5-min Rain = 0
KUM1 121707Z 22012KT 09/M06 A299 RMK A01 T00891061  RH  034%=      5-min Rain = 0
KUM1 121708Z 22011KT 09/M06 A2989 RMK A01 T00901059  RH  034%=      5-min Rain = 0
KUM1 121709Z 22011KT 09/M06 A2989 RMK A01 T00901062  RH  034%=      5-min Rain = 0
KUM1 121710Z 22012KT 09/M06 A2989 RMK A01 T00901063  RH  033%=      5-min Rain = 0
KUM1 121711Z 22011KT 09/M06 A2989 RMK A01 T00911063  RH  033%=      5-min Rain = 0
KUM1 121712Z 22011KT 09/M06 A2989 RMK A01 T00921062  RH  033%=      5-min Rain = 0
KUM1 121713Z 22012KT 09/M06 A2989 RMK A01 T00911064  RH  033%=      5-min Rain = 0
KUM1 121714Z 22009KT 09/M06 A2989 RMK A01 T00901063  RH  033%=      5-min Rain = 0
KUM1 121715Z 22012KT 09/M06 A2989 RMK A01 T00911056  RH  035%=      5-min Rain = 0
KUM1 121716Z 22012KT 09/M06 A2989 RMK A01 T00921060  RH  034%=      5-min Rain = 0
KUM1 121717Z 22013KT 09/M06 A2989 RMK A01 T00921061  RH  033%=      5-min Rain = 0
KUM1 121718Z 22011KT 09/M06 A2988 RMK A01 T00921060  RH  034%=      5-min Rain = 0
KUM1 121719Z 21014KT 09/M06 A2988 RMK A01 T00921061  RH  033%=      5-min Rain = 0
KUM1 121720Z 21014KT 09/M06 A2988 RMK A01 T00921061  RH  033%=      5-min Rain = 0
KUM1 121721Z 22013KT 09/M06 A2988 RMK A01 T00931062  RH  033%=      5-min Rain = 0
KUM1 121722Z 21012KT 09/M06 A2988 RMK A01 T00921064  RH  033%=      5-min Rain = 0
KUM1 121723Z 21012KT 09/M06 A2988 RMK A01 T00931058  RH  034%=      5-min Rain = 0
KUM1 121724Z 22012KT 09/M06 A2988 RMK A01 T00941059  RH  034%=      5-min Rain = 0
KUM1 121725Z 22011KT 10/M06 A2987 RMK A01 T00951058  RH  033%=      5-min Rain = 0
KUM1 121726Z 23009KT 10/M06 A2987 RMK A01 T00961058  RH  033%=      5-min Rain = 0
KUM1 121727Z 22013KT 10/M06 A2987 RMK A01 T00961056  RH  034%=      5-min Rain = 0
KUM1 121728Z 23011KT 10/M06 A2987 RMK A01 T00981056  RH  033%=      5-min Rain = 0
KUM1 121729Z 24012KT 10/M06 A2987 RMK A01 T00981058  RH  033%=      5-min Rain = 0
KUM1 121730Z 22010KT 10/M06 A2987 RMK A01 T00981057  RH  033%=      5-min Rain = 0
KUM1 121731Z 23011KT 10/M06 A2987 RMK A01 T00991056  RH  033%=      5-min Rain = 0
KUM1 121732Z 24009KT 10/M05 A2987 RMK A01 T00991052  RH  034%=      5-min Rain = 0
KUM1 121733Z 24011KT 10/M05 A2986 RMK A01 T01011051  RH  034%=      5-min Rain = 0
KUM1 121734Z 24012KT 10/M06 A2986 RMK A01 T01011057  RH  032%=      5-min Rain = 0
KUM1 121735Z 24012KT 10/M06 A2986 RMK A01 T01001057  RH  033%=      5-min Rain = 0
KUM1 121736Z 24012KT 10/M06 A2986 RMK A01 T00991056  RH  033%=      5-min Rain = 0
KUM1 121737Z 22011KT 10/M06 A2986 RMK A01 T00991056  RH  033%=      5-min Rain = 0
KUM1 121738Z 22011KT 10/M05 A2986 RMK A01 T01001054  RH  033%=      5-min Rain = 0
KUM1 121739Z 22012KT 10/M05 A2986 RMK A01 T01021051  RH  034%=      5-min Rain = 0
KUM1 121740Z 23011KT 10/M06 A2986 RMK A01 T01031055  RH  033%=      5-min Rain = 0
KUM1 121741Z 23011KT 10/M06 A2986 RMK A01 T01031056  RH  032%=      5-min Rain = 0
KUM1 121742Z 23010KT 10/M06 A2985 RMK A01 T01031055  RH  032%=      5-min Rain = 0
KUM1 121743Z 24008KT 10/M05 A2985 RMK A01 T01041051  RH  033%=      5-min Rain = 0
KUM1 121744Z 23011KT 11/M05 A2985 RMK A01 T01061048  RH  033%=      5-min Rain = 0
KUM1 121745Z 24010KT 11/M05 A2985 RMK A01 T01061051  RH  033%=      5-min Rain = 0
KUM1 121746Z 23010KT 11/M05 A2985 RMK A01 T01061051  RH  033%=      5-min Rain = 0
KUM1 121747Z 24011KT 11/M05 A2985 RMK A01 T01061050  RH  033%=      5-min Rain = 0
KUM1 121748Z 23010KT 11/M05 A2985 RMK A01 T01071050  RH  033%=      5-min Rain = 0
KUM1 121749Z 23011KT 11/M05 A2984 RMK A01 T01091049  RH  033%=      5-min Rain = 0
KUM1 121750Z 22009KT 11/M05 A2984 RMK A01 T01091049  RH  033%=      5-min Rain = 0
KUM1 121751Z 23011KT 11/M04 A2984 RMK A01 T01111044  RH  033%=      5-min Rain = 0
KUM1 121752Z 23011KT 11/M05 A2984 RMK A01 T01121047  RH  032%=      5-min Rain = 0
KUM1 121753Z 23009KT 11/M05 A2984 RMK A01 T01121047  RH  032%=      5-min Rain = 0
KUM1 121754Z 23011KT 11/M05 A2984 RMK A01 T01131046  RH  032%=      5-min Rain = 0
KUM1 121755Z 24013KT 11/M05 A2984 RMK A01 T01141046  RH  032%=      5-min Rain = 0
KUM1 121756Z 24012KT 11/M05 A2984 RMK A01 T01141048  RH  032%=      5-min Rain = 0
KUM1 121757Z 24009KT 12/M04 A2984 RMK A01 T01151044  RH  033%=      5-min Rain = 0
KUM1 121758Z 24009KT 12/M04 A2983 RMK A01 T01171038  RH  034%=      5-min Rain = 0
KUM1 121759Z 24010KT 12/M03 A2983 RMK A01 T01191034  RH  034%=      5-min Rain = 0
KUM1 121800Z 24011KT 12/M04 A2983 RMK A01 T01201039  RH  033%=      5-min Rain = 0
KUM1 121801Z 25012KT 12/M04 A2983 RMK A01 T01201042  RH  032%=      5-min Rain = 0
KUM1 121802Z 24012KT 12/M04 A2983 RMK A01 T01201038  RH  033%=      5-min Rain = 0
KUM1 121803Z 24011KT 12/M04 A2983 RMK A01 T01211037  RH  033%=      5-min Rain = 0
KUM1 121804Z 24012KT 12/M04 A2983 RMK A01 T01211040  RH  032%=      5-min Rain = 0
KUM1 121805Z 24011KT 12/M04 A2983 RMK A01 T01201041  RH  032%=      5-min Rain = 0
KUM1 121806Z 23010KT 12/M04 A2983 RMK A01 T01211037  RH  033%=      5-min Rain = 0
KUM1 121807Z 24012KT 12/M03 A2983 RMK A01 T01231034  RH  033%=      5-min Rain = 0
KUM1 121808Z 24013KT 12/M03 A2982 RMK A01 T01241034  RH  033%=      5-min Rain = 0
KUM1 121809Z 23012KT 12/M04 A2982 RMK A01 T01241040  RH  032%=      5-min Rain = 0
KUM1 121810Z 24012KT 12/M04 A2982 RMK A01 T01241035  RH  033%=      5-min Rain = 0
KUM1 121811Z 24013G18KT 13/M03 A2982 RMK A01 T01261033  RH  033%=      5-min Rain = 0
KUM1 121812Z 25015KT 13/M04 A2982 RMK A01 T01271035  RH  032%=      5-min Rain = 0
KUM1 121813Z 24013KT 13/M04 A2982 RMK A01 T01251036  RH  032%=      5-min Rain = 0
KUM1 121814Z 24011KT 13/M03 A2982 RMK A01 T01251033  RH  033%=      5-min Rain = 0
KUM1 121815Z 24013KT 13/M03 A2982 RMK A01 T01261032  RH  033%=      5-min Rain = 0
KUM1 121816Z 23013KT 13/M03 A2982 RMK A01 T01281029  RH  033%=      5-min Rain = 0
KUM1 121817Z 25014KT 13/M03 A2982 RMK A01 T01271034  RH  032%=      5-min Rain = 0
KUM1 121818Z 25013KT 13/M04 A2982 RMK A01 T01251035  RH  033%=      5-min Rain = 0
KUM1 121819Z 24012KT 13/M03 A2982 RMK A01 T01251034  RH  033%=      5-min Rain = 0
KUM1 121820Z 25013KT 13/M04 A2982 RMK A01 T01261035  RH  032%=      5-min Rain = 0
KUM1 121821Z 25014KT 13/M03 A2982 RMK A01 T01261034  RH  033%=      5-min Rain = 0
KUM1 121822Z 24013KT 13/M04 A2982 RMK A01 T01261036  RH  032%=      5-min Rain = 0
KUM1 121823Z 23010KT 13/M03 A2982 RMK A01 T01261034  RH  033%=      5-min Rain = 0
KUM1 121824Z 24012KT 13/M04 A2982 RMK A01 T01261035  RH  032%=      5-min Rain = 0
KUM1 121825Z 23013KT 13/M03 A2982 RMK A01 T01271031  RH  033%=      5-min Rain = 0
KUM1 121826Z 24016KT 13/M03 A2981 RMK A01 T01281034  RH  032%=      5-min Rain = 0
KUM1 121827Z 24013KT 13/M04 A2982 RMK A01 T01281035  RH  032%=      5-min Rain = 0
KUM1 121828Z 24013KT 13/M03 A2981 RMK A01 T01271033  RH  033%=      5-min Rain = 0
KUM1 121829Z 25012KT 13/M03 A2981 RMK A01 T01281031  RH  033%=      5-min Rain = 0
KUM1 121830Z 24011KT 13/M03 A2981 RMK A01 T01291029  RH  033%=      5-min Rain = 0
KUM1 121831Z 24014KT 13/M03 A2981 RMK A01 T01301032  RH  032%=      5-min Rain = 0
KUM1 121832Z 25013KT 13/M03 A2981 RMK A01 T01291032  RH  032%=      5-min Rain = 0
KUM1 121833Z 25014KT 13/M03 A2981 RMK A01 T01281031  RH  033%=      5-min Rain = 0
KUM1 121834Z 25014KT 13/M03 A2981 RMK A01 T01291030  RH  033%=      5-min Rain = 0
KUM1 121835Z 25015KT 13/M03 A2981 RMK A01 T01291030  RH  033%=      5-min Rain = 0
KUM1 121836Z 26013KT 13/M03 A298 RMK A01 T01301032  RH  032%=      5-min Rain = 0
KUM1 121837Z 25011KT 13/M03 A298 RMK A01 T01301030  RH  033%=      5-min Rain = 0
KUM1 121838Z 26011KT 13/M03 A298 RMK A01 T01301027  RH  034%=      5-min Rain = 0
KUM1 121839Z 25010KT 13/M03 A298 RMK A01 T01311027  RH  033%=      5-min Rain = 0
KUM1 121840Z 25010KT 13/M03 A298 RMK A01 T01311028  RH  033%=      5-min Rain = 0
KUM1 121841Z 26011KT 13/M03 A298 RMK A01 T01311029  RH  033%=      5-min Rain = 0
KUM1 121842Z 24011KT 13/M03 A298 RMK A01 T01311027  RH  033%=      5-min Rain = 0
KUM1 121843Z 24012KT 13/M03 A298 RMK A01 T01321029  RH  033%=      5-min Rain = 0
KUM1 121844Z 26011KT 13/M03 A298 RMK A01 T01331029  RH  032%=      5-min Rain = 0
KUM1 121845Z 25012KT 13/M03 A298 RMK A01 T01331029  RH  032%=      5-min Rain = 0
KUM1 121846Z 25011KT 13/M03 A298 RMK A01 T01341028  RH  032%=      5-min Rain = 0
KUM1 121847Z 25009KT 13/M03 A298 RMK A01 T01341030  RH  032%=      5-min Rain = 0
KUM1 121848Z 26008KT 14/M02 A2979 RMK A01 T01351023  RH  033%=      5-min Rain = 0
KUM1 121849Z 24010KT 14/M02 A2979 RMK A01 T01381022  RH  033%=      5-min Rain = 0
KUM1 121850Z 25010KT 14/M02 A2979 RMK A01 T01391022  RH  033%=      5-min Rain = 0
KUM1 121851Z 26010KT 14/M02 A2979 RMK A01 T01421015  RH  034%=      5-min Rain = 0
KUM1 121852Z 26010KT 14/M02 A2979 RMK A01 T01431022  RH  032%=      5-min Rain = 0
KUM1 121853Z 27010KT 14/M03 A2979 RMK A01 T01431029  RH  030%=      5-min Rain = 0
KUM1 121854Z 27010KT 14/M03 A2979 RMK A01 T01441025  RH  031%=      5-min Rain = 0
KUM1 121855Z 27012KT 15/M03 A2979 RMK A01 T01451028  RH  030%=      5-min Rain = 0
KUM1 121856Z 27011KT 15/M03 A2978 RMK A01 T01451027  RH  030%=      5-min Rain = 0
KUM1 121857Z 26012KT 15/M03 A2978 RMK A01 T01461025  RH  030%=      5-min Rain = 0
KUM1 121858Z 26012KT 15/M02 A2978 RMK A01 T01481023  RH  031%=      5-min Rain = 0
KUM1 121859Z 27012KT 15/M02 A2978 RMK A01 T01511023  RH  030%=      5-min Rain = 0
KUM1 121900Z 26012KT 15/M03 A2978 RMK A01 T01511026  RH  029%=      5-min Rain = 0
KUM1 121901Z 26012KT 15/M03 A2978 RMK A01 T01501026  RH  030%=      5-min Rain = 0
KUM1 121902Z 25011KT 15/M03 A2978 RMK A01 T01501026  RH  030%=      5-min Rain = 0
KUM1 121903Z 25012KT 15/M02 A2978 RMK A01 T01501024  RH  030%=      5-min Rain = 0
KUM1 121904Z 25010KT 15/M03 A2978 RMK A01 T01501025  RH  030%=      5-min Rain = 0
KUM1 121905Z 26010KT 15/M02 A2977 RMK A01 T01511024  RH  030%=      5-min Rain = 0
KUM1 121906Z 27009KT 15/M02 A2977 RMK A01 T01521019  RH  031%=      5-min Rain = 0
KUM1 121907Z 27008KT 15/M02 A2977 RMK A01 T01531020  RH  030%=      5-min Rain = 0
KUM1 121908Z 28008KT 15/M02 A2977 RMK A01 T01531018  RH  031%=      5-min Rain = 0
KUM1 121909Z 28010KT 15/M02 A2977 RMK A01 T01541021  RH  030%=      5-min Rain = 0
KUM1 121910Z 27013KT 15/M02 A2977 RMK A01 T01531024  RH  029%=      5-min Rain = 0
KUM1 121911Z 27012KT 15/M03 A2977 RMK A01 T01541026  RH  029%=      5-min Rain = 0
KUM1 121912Z 27010KT 15/M03 A2977 RMK A01 T01541027  RH  029%=      5-min Rain = 0
KUM1 121913Z 27008KT 15/M03 A2977 RMK A01 T01541026  RH  029%=      5-min Rain = 0
KUM1 121914Z 27008KT 15/M02 A2977 RMK A01 T01541023  RH  030%=      5-min Rain = 0
KUM1 121915Z 25011KT 15/M02 A2977 RMK A01 T01541022  RH  030%=      5-min Rain = 0
KUM1 121916Z 25013KT 16/M02 A2977 RMK A01 T01561021  RH  030%=      5-min Rain = 0
KUM1 121917Z 24012KT 16/M02 A2977 RMK A01 T01571018  RH  030%=      5-min Rain = 0
KUM1 121918Z 24010KT 16/M02 A2977 RMK A01 T01571021  RH  029%=      5-min Rain = 0
KUM1 121919Z 25011KT 16/M02 A2977 RMK A01 T01581018  RH  030%=      5-min Rain = 0
KUM1 121920Z 23009KT 16/M02 A2977 RMK A01 T01611020  RH  029%=      5-min Rain = 0
KUM1 121921Z 25011KT 16/M02 A2976 RMK A01 T01611019  RH  029%=      5-min Rain = 0
KUM1 121922Z 25013KT 16/M02 A2976 RMK A01 T01621022  RH  028%=      5-min Rain = 0
KUM1 121923Z 25014KT 16/M02 A2976 RMK A01 T01631019  RH  029%=      5-min Rain = 0
KUM1 121924Z 25012KT 17/M02 A2976 RMK A01 T01651018  RH  029%=      5-min Rain = 0
KUM1 121925Z 25012KT 17/M02 A2976 RMK A01 T01651020  RH  028%=      5-min Rain = 0
KUM1 121926Z 26010KT 17/M02 A2976 RMK A01 T01651020  RH  028%=      5-min Rain = 0
KUM1 121927Z 27010KT 17/M02 A2976 RMK A01 T01651020  RH  028%=      5-min Rain = 0
KUM1 121928Z 25011KT 17/M02 A2976 RMK A01 T01651019  RH  028%=      5-min Rain = 0
KUM1 121929Z 24012KT 17/M02 A2976 RMK A01 T01661017  RH  029%=      5-min Rain = 0
KUM1 121930Z 24011KT 17/M02 A2976 RMK A01 T01661017  RH  028%=      5-min Rain = 0
KUM1 121931Z 24011KT 17/M02 A2976 RMK A01 T01671020  RH  028%=      5-min Rain = 0
KUM1 121932Z 24012KT 17/M02 A2976 RMK A01 T01671019  RH  028%=      5-min Rain = 0
KUM1 121933Z 25012KT 17/M02 A2975 RMK A01 T01681021  RH  027%=      5-min Rain = 0
KUM1 121934Z 25009KT 17/M01 A2975 RMK A01 T01681014  RH  029%=      5-min Rain = 0
KUM1 121935Z 25009KT 17/M02 A2975 RMK A01 T01681017  RH  028%=      5-min Rain = 0
KUM1 121936Z 25009KT 17/M02 A2975 RMK A01 T01681020  RH  028%=      5-min Rain = 0
KUM1 121937Z 24008KT 17/M02 A2975 RMK A01 T01681018  RH  028%=      5-min Rain = 0
KUM1 121938Z 25010KT 17/M02 A2975 RMK A01 T01701015  RH  028%=      5-min Rain = 0
KUM1 121939Z 24010KT 17/M02 A2975 RMK A01 T01711016  RH  028%=      5-min Rain = 0
KUM1 121940Z 24009KT 17/M01 A2975 RMK A01 T01711013  RH  028%=      5-min Rain = 0
KUM1 121941Z 24009KT 17/M01 A2975 RMK A01 T01721013  RH  028%=      5-min Rain = 0
KUM1 121942Z 25009KT 17/M02 A2975 RMK A01 T01731017  RH  027%=      5-min Rain = 0
KUM1 121943Z 25011KT 17/M02 A2975 RMK A01 T01721016  RH  028%=      5-min Rain = 0
KUM1 121944Z 25011KT 17/M02 A2975 RMK A01 T01721017  RH  028%=      5-min Rain = 0
KUM1 121945Z 24012KT 17/M01 A2974 RMK A01 T01731013  RH  028%=      5-min Rain = 0
KUM1 121946Z 24013KT 18/M02 A2974 RMK A01 T01761015  RH  027%=      5-min Rain = 0
KUM1 121947Z 24013KT 18/M02 A2974 RMK A01 T01771017  RH  027%=      5-min Rain = 0
KUM1 121948Z 24012KT 18/M02 A2974 RMK A01 T01771018  RH  027%=      5-min Rain = 0
KUM1 121949Z 25014KT 18/M02 A2974 RMK A01 T01771016  RH  027%=      5-min Rain = 0
KUM1 121950Z 25012KT 18/M02 A2974 RMK A01 T01771015  RH  027%=      5-min Rain = 0
KUM1 121951Z 24012KT 18/M01 A2974 RMK A01 T01771012  RH  028%=      5-min Rain = 0
KUM1 121952Z 22012KT 18/M01 A2974 RMK A01 T01781012  RH  027%=      5-min Rain = 0
KUM1 121953Z 22011KT 18/M01 A2974 RMK A01 T01791014  RH  027%=      5-min Rain = 0
KUM1 121954Z 22013KT 18/M02 A2974 RMK A01 T01791017  RH  026%=      5-min Rain = 0
KUM1 121955Z 22011KT 18/M02 A2974 RMK A01 T01771021  RH  026%=      5-min Rain = 0
KUM1 121956Z 22011KT 18/M02 A2974 RMK A01 T01771020  RH  026%=      5-min Rain = 0
KUM1 121957Z 22010KT 18/M02 A2974 RMK A01 T01771018  RH  026%=      5-min Rain = 0
KUM1 121958Z 22010KT 18/M02 A2974 RMK A01 T01771015  RH  027%=      5-min Rain = 0
KUM1 121959Z 21010KT 18/M02 A2974 RMK A01 T01781020  RH  026%=      5-min Rain = 0
KUM1 122000Z 21010KT 18/M02 A2973 RMK A01 T01781021  RH  026%=      5-min Rain = 0
KUM1 122001Z 22010KT 18/M02 A2973 RMK A01 T01781018  RH  026%=      5-min Rain = 0
KUM1 122002Z 21008KT 18/M02 A2973 RMK A01 T01791015  RH  027%=      5-min Rain = 0
KUM1 122003Z 21008KT 18/M01 A2973 RMK A01 T01801014  RH  027%=      5-min Rain = 0
KUM1 122004Z 22008KT 18/M02 A2973 RMK A01 T01801022  RH  025%=      5-min Rain = 0
KUM1 122005Z 22009KT 18/M02 A2973 RMK A01 T01791018  RH  026%=      5-min Rain = 0
KUM1 122006Z 23009KT 18/M02 A2973 RMK A01 T01801018  RH  026%=      5-min Rain = 0
KUM1 122007Z 24008KT 18/M02 A2973 RMK A01 T01791018  RH  026%=      5-min Rain = 0
KUM1 122008Z 24007KT 18/M02 A2973 RMK A01 T01791016  RH  027%=      5-min Rain = 0
KUM1 122009Z 23006KT 18/M01 A2973 RMK A01 T01791014  RH  027%=      5-min Rain = 0
KUM1 122010Z 24006KT 18/M01 A2973 RMK A01 T01811011  RH  027%=      5-min Rain = 0
KUM1 122011Z 23007KT 18/M01 A2973 RMK A01 T01821008  RH  028%=      5-min Rain = 0
KUM1 122012Z 24006KT 18/M01 A2973 RMK A01 T01841012  RH  027%=      5-min Rain = 0
KUM1 122013Z 21007KT 18/M01 A2973 RMK A01 T01841012  RH  026%=      5-min Rain = 0
KUM1 122014Z 21006KT 19/M01 A2972 RMK A01 T01861008  RH  027%=      5-min Rain = 0
KUM1 122015Z 25006KT 19/M01 A2972 RMK A01 T01871008  RH  027%=      5-min Rain = 0
KUM1 122016Z 24006KT 19/M01 A2972 RMK A01 T01871013  RH  026%=      5-min Rain = 0
KUM1 122017Z 23005KT 19/M01 A2972 RMK A01 T01861012  RH  026%=      5-min Rain = 0
KUM1 122018Z 25007G15KT 19/M01 A2972 RMK A01 T01871007  RH  027%=      5-min Rain = 0
KUM1 122019Z 27016KT 19/M02 A2972 RMK A01 T01901019  RH  024%=      5-min Rain = 0
KUM1 122020Z 26017KT 20/M03 A2972 RMK A01 T01951028  RH  022%=      5-min Rain = 0
KUM1 122021Z 26014KT 20/M03 A2972 RMK A01 T01981027  RH  022%=      5-min Rain = 0
KUM1 122022Z 25016KT 20/M03 A2972 RMK A01 T02001028  RH  021%=      5-min Rain = 0
KUM1 122023Z 25019G26KT 20/M03 A2972 RMK A01 T02001031  RH  021%=      5-min Rain = 0
KUM1 122024Z 25023KT 20/M04 A2971 RMK A01 T02001042  RH  019%=      5-min Rain = 0
KUM1 122025Z 26024KT 20/M05 A2971 RMK A01 T02001048  RH  018%=      5-min Rain = 0
KUM1 122026Z 26022KT 20/M05 A2971 RMK A01 T02001049  RH  018%=      5-min Rain = 0
KUM1 122027Z 26018KT 20/M05 A2971 RMK A01 T01991047  RH  019%=      5-min Rain = 0
KUM1 122028Z 25017KT 20/M04 A2971 RMK A01 T02001040  RH  020%=      5-min Rain = 0
KUM1 122029Z 24017KT 20/M04 A2971 RMK A01 T02011040  RH  019%=      5-min Rain = 0
KUM1 122030Z 24020KT 20/M04 A2971 RMK A01 T02011042  RH  019%=      5-min Rain = 0
KUM1 122031Z 24022KT 20/M05 A2971 RMK A01 T02001045  RH  019%=      5-min Rain = 0
KUM1 122032Z 25021KT 20/M05 A2971 RMK A01 T01991046  RH  019%=      5-min Rain = 0
KUM1 122033Z 25020KT 20/M05 A2971 RMK A01 T01971047  RH  019%=      5-min Rain = 0
KUM1 122034Z 24019KT 20/M05 A2971 RMK A01 T01971045  RH  019%=      5-min Rain = 0
KUM1 122035Z 24022KT 20/M05 A2971 RMK A01 T01971047  RH  019%=      5-min Rain = 0
KUM1 122036Z 23021KT 20/M05 A2971 RMK A01 T01971046  RH  019%=      5-min Rain = 0
KUM1 122037Z 24018KT 20/M05 A2971 RMK A01 T01971048  RH  019%=      5-min Rain = 0
KUM1 122038Z 23019KT 20/M04 A2971 RMK A01 T01971044  RH  019%=      5-min Rain = 0
KUM1 122039Z 23017KT 20/M04 A2971 RMK A01 T01971040  RH  020%=      5-min Rain = 0
KUM1 122040Z 24019G26KT 20/M04 A2971 RMK A01 T01981040  RH  020%=      5-min Rain = 0
KUM1 122041Z 25018KT 20/M03 A2971 RMK A01 T01991033  RH  021%=      5-min Rain = 0
KUM1 122042Z 25021KT 20/M04 A2971 RMK A01 T01991038  RH  020%=      5-min Rain = 0
KUM1 122043Z 25020KT 20/M04 A2971 RMK A01 T01991039  RH  020%=      5-min Rain = 0
KUM1 122044Z 24019KT 20/M04 A2971 RMK A01 T01981039  RH  020%=      5-min Rain = 0
KUM1 122045Z 24020KT 20/M04 A2971 RMK A01 T01981040  RH  020%=      5-min Rain = 0
KUM1 122046Z 25022KT 20/M04 A297 RMK A01 T01971043  RH  019%=      5-min Rain = 0
KUM1 122047Z 25021KT 20/M04 A297 RMK A01 T01961040  RH  020%=      5-min Rain = 0
KUM1 122048Z 25020G25KT 20/M04 A297 RMK A01 T01961036  RH  021%=      5-min Rain = 0
KUM1 122049Z 24017KT 20/M04 A297 RMK A01 T01961036  RH  020%=      5-min Rain = 0
KUM1 122050Z 24017KT 20/M03 A297 RMK A01 T01971033  RH  021%=      5-min Rain = 0
KUM1 122051Z 25022KT 20/M03 A297 RMK A01 T01981034  RH  021%=      5-min Rain = 0
KUM1 122052Z 24019KT 20/M04 A297 RMK A01 T01971036  RH  020%=      5-min Rain = 0
KUM1 122053Z 25021G26KT 20/M04 A297 RMK A01 T01971035  RH  021%=      5-min Rain = 0
KUM1 122054Z 25021KT 20/M03 A297 RMK A01 T01961033  RH  021%=      5-min Rain = 0
KUM1 122055Z 25018KT 20/M03 A297 RMK A01 T01961031  RH  021%=      5-min Rain = 0
KUM1 122056Z 25020KT 20/M03 A297 RMK A01 T01961028  RH  022%=      5-min Rain = 0
KUM1 122057Z 25021KT 20/M04 A297 RMK A01 T01951037  RH  021%=      5-min Rain = 0
KUM1 122058Z 25020G25KT 19/M04 A297 RMK A01 T01941037  RH  021%=      5-min Rain = 0
KUM1 122059Z 25023KT 19/M04 A297 RMK A01 T01931038  RH  021%=      5-min Rain = 0
KUM1 122100Z 25023KT 19/M04 A297 RMK A01 T01931035  RH  021%=      5-min Rain = 0
KUM1 122101Z 25022KT 19/M04 A297 RMK A01 T01931037  RH  021%=      5-min Rain = 0
KUM1 122102Z 25021KT 19/M04 A297 RMK A01 T01931036  RH  021%=      5-min Rain = 0
KUM1 122103Z 25021KT 19/M04 A297 RMK A01 T01931035  RH  021%=      5-min Rain = 0
KUM1 122104Z 25021KT 19/M04 A297 RMK A01 T01931036  RH  021%=      5-min Rain = 0
KUM1 122105Z 26020KT 19/M04 A297 RMK A01 T01921038  RH  021%=      5-min Rain = 0
KUM1 122106Z 26019KT 19/M04 A297 RMK A01 T01931035  RH  021%=      5-min Rain = 0
KUM1 122107Z 26018KT 19/M04 A297 RMK A01 T01931035  RH  021%=      5-min Rain = 0
KUM1 122108Z 26018KT 19/M03 A297 RMK A01 T01931034  RH  021%=      5-min Rain = 0
KUM1 122109Z 26015KT 19/M03 A297 RMK A01 T01941034  RH  021%=      5-min Rain = 0
KUM1 122110Z 25016KT 20/M03 A297 RMK A01 T01951029  RH  022%=      5-min Rain = 0
KUM1 122111Z 25017KT 20/M03 A297 RMK A01 T01951028  RH  022%=      5-min Rain = 0
KUM1 122112Z 24016G21KT 20/M03 A297 RMK A01 T01951029  RH  022%=      5-min Rain = 0
KUM1 122113Z 25018KT 20/M03 A297 RMK A01 T01951032  RH  021%=      5-min Rain = 0
KUM1 122114Z 25019KT 19/M03 A297 RMK A01 T01941032  RH  021%=      5-min Rain = 0
KUM1 122115Z 25016KT 19/M03 A297 RMK A01 T01941032  RH  021%=      5-min Rain = 0
KUM1 122116Z 25016KT 20/M03 A297 RMK A01 T01951031  RH  022%=      5-min Rain = 0
KUM1 122117Z 25016KT 20/M03 A297 RMK A01 T01951029  RH  022%=      5-min Rain = 0
KUM1 122118Z 25020KT 20/M03 A2969 RMK A01 T01951031  RH  021%=      5-min Rain = 0
KUM1 122119Z 25018KT 19/M04 A2969 RMK A01 T01941037  RH  021%=      5-min Rain = 0
KUM1 122120Z 25021KT 19/M04 A2969 RMK A01 T01941040  RH  020%=      5-min Rain = 0
KUM1 122121Z 25023KT 19/M04 A2969 RMK A01 T01941042  RH  020%=      5-min Rain = 0
KUM1 122122Z 25018KT 19/M04 A2969 RMK A01 T01941035  RH  021%=      5-min Rain = 0
KUM1 122123Z 25021KT 19/M04 A2969 RMK A01 T01941038  RH  020%=      5-min Rain = 0
KUM1 122124Z 25020KT 19/M04 A2969 RMK A01 T01941040  RH  020%=      5-min Rain = 0
KUM1 122125Z 24021KT 19/M04 A2969 RMK A01 T01941039  RH  020%=      5-min Rain = 0
KUM1 122126Z 24019KT 19/M04 A2969 RMK A01 T01941041  RH  020%=      5-min Rain = 0
KUM1 122127Z 24018KT 19/M04 A2969 RMK A01 T01931040  RH  020%=      5-min Rain = 0
KUM1 122128Z 25017KT 19/M04 A2969 RMK A01 T01931038  RH  021%=      5-min Rain = 0
KUM1 122129Z 25020KT 19/M04 A2969 RMK A01 T01931038  RH  021%=      5-min Rain = 0
KUM1 122130Z 25019KT 19/M04 A2969 RMK A01 T01931040  RH  020%=      5-min Rain = 0
KUM1 122131Z 25018KT 19/M04 A2969 RMK A01 T01941037  RH  021%=      5-min Rain = 0
KUM1 122132Z 25017KT 19/M03 A2969 RMK A01 T01931033  RH  021%=      5-min Rain = 0
KUM1 122133Z 25018KT 19/M03 A2969 RMK A01 T01931034  RH  021%=      5-min Rain = 0
KUM1 122134Z 25016G21KT 19/M04 A2969 RMK A01 T01941035  RH  021%=      5-min Rain = 0
KUM1 122135Z 25017G22KT 19/M03 A2969 RMK A01 T01941030  RH  022%=      5-min Rain = 0
KUM1 122136Z 25019KT 19/M04 A2969 RMK A01 T01941036  RH  021%=      5-min Rain = 0
KUM1 122137Z 25019G24KT 19/M04 A2969 RMK A01 T01941037  RH  021%=      5-min Rain = 0
KUM1 122138Z 25023KT 19/M04 A2969 RMK A01 T01941041  RH  020%=      5-min Rain = 0
KUM1 122139Z 25022KT 19/M04 A2969 RMK A01 T01931043  RH  020%=      5-min Rain = 0
KUM1 122140Z 26023KT 19/M04 A2969 RMK A01 T01921040  RH  020%=      5-min Rain = 0
KUM1 122141Z 25021G27KT 19/M04 A2969 RMK A01 T01921042  RH  020%=      5-min Rain = 0
KUM1 122142Z 25020G25KT 19/M04 A2969 RMK A01 T01921039  RH  021%=      5-min Rain = 0
KUM1 122143Z 24019G24KT 19/M04 A2969 RMK A01 T01921044  RH  020%=      5-min Rain = 0
KUM1 122144Z 24019KT 19/M04 A2968 RMK A01 T01921042  RH  020%=      5-min Rain = 0
KUM1 122145Z 24018KT 19/M04 A2968 RMK A01 T01911041  RH  020%=      5-min Rain = 0
KUM1 122146Z 25018KT 19/M04 A2968 RMK A01 T01911037  RH  021%=      5-min Rain = 0
KUM1 122147Z 25020KT 19/M04 A2968 RMK A01 T01911038  RH  021%=      5-min Rain = 0
KUM1 122148Z 25020KT 19/M04 A2968 RMK A01 T01911037  RH  021%=      5-min Rain = 0
KUM1 122149Z 25019G24KT 19/M04 A2968 RMK A01 T01911037  RH  021%=      5-min Rain = 0
KUM1 122150Z 24016G21KT 19/M03 A2968 RMK A01 T01911033  RH  022%=      5-min Rain = 0
KUM1 122151Z 24018KT 19/M04 A2968 RMK A01 T01911037  RH  021%=      5-min Rain = 0
KUM1 122152Z 25018KT 19/M03 A2968 RMK A01 T01911034  RH  021%=      5-min Rain = 0
KUM1 122153Z 25018KT 19/M04 A2968 RMK A01 T01901037  RH  021%=      5-min Rain = 0
KUM1 122154Z 24016KT 19/M03 A2968 RMK A01 T01911034  RH  022%=      5-min Rain = 0
KUM1 122155Z 24017G25KT 19/M03 A2968 RMK A01 T01911034  RH  022%=      5-min Rain = 0
KUM1 122156Z 24018KT 19/M04 A2968 RMK A01 T01901039  RH  021%=      5-min Rain = 0
KUM1 122157Z 24018KT 19/M04 A2968 RMK A01 T01901039  RH  021%=      5-min Rain = 0
KUM1 122158Z 25021KT 19/M04 A2968 RMK A01 T01901036  RH  021%=      5-min Rain = 0
KUM1 122159Z 24019KT 19/M04 A2968 RMK A01 T01891037  RH  021%=      5-min Rain = 0
KUM1 122200Z 24017KT 19/M04 A2968 RMK A01 T01891035  RH  022%=      5-min Rain = 0
KUM1 122201Z 24016KT 19/M03 A2968 RMK A01 T01891034  RH  022%=      5-min Rain = 0
KUM1 122202Z 24017G22KT 19/M04 A2968 RMK A01 T01891036  RH  021%=      5-min Rain = 0
KUM1 122203Z 23019KT 19/M04 A2968 RMK A01 T01891036  RH  021%=      5-min Rain = 0
KUM1 122204Z 24017G22KT 19/M04 A2968 RMK A01 T01901036  RH  021%=      5-min Rain = 0
KUM1 122205Z 24017G24KT 19/M03 A2968 RMK A01 T01891034  RH  022%=      5-min Rain = 0
KUM1 122206Z 24015KT 19/M04 A2968 RMK A01 T01881035  RH  022%=      5-min Rain = 0
KUM1 122207Z 24022KT 19/M03 A2967 RMK A01 T01881034  RH  022%=      5-min Rain = 0
KUM1 122208Z 24019KT 19/M04 A2968 RMK A01 T01871038  RH  021%=      5-min Rain = 0
KUM1 122209Z 24016KT 19/M04 A2968 RMK A01 T01871036  RH  022%=      5-min Rain = 0
KUM1 122210Z 24019G24KT 19/M04 A2967 RMK A01 T01871038  RH  022%=      5-min Rain = 0
KUM1 122211Z 24019G26KT 19/M04 A2968 RMK A01 T01861040  RH  021%=      5-min Rain = 0
KUM1 122212Z 24020KT 19/M04 A2967 RMK A01 T01861041  RH  021%=      5-min Rain = 0
KUM1 122213Z 24020KT 19/M04 A2967 RMK A01 T01871041  RH  021%=      5-min Rain = 0
KUM1 122214Z 24018KT 19/M04 A2967 RMK A01 T01861042  RH  021%=      5-min Rain = 0
KUM1 122215Z 24017KT 19/M04 A2967 RMK A01 T01861040  RH  021%=      5-min Rain = 0
KUM1 122216Z 25018G23KT 19/M04 A2967 RMK A01 T01851039  RH  021%=      5-min Rain = 0
KUM1 122217Z 24016KT 19/M04 A2967 RMK A01 T01851037  RH  022%=      5-min Rain = 0
KUM1 122218Z 24019KT 19/M04 A2967 RMK A01 T01851036  RH  022%=      5-min Rain = 0
KUM1 122219Z 24017KT 18/M04 A2967 RMK A01 T01841037  RH  022%=      5-min Rain = 0
KUM1 122220Z 25016KT 18/M04 A2967 RMK A01 T01841035  RH  022%=      5-min Rain = 0
KUM1 122221Z 24014KT 18/M04 A2967 RMK A01 T01831035  RH  022%=      5-min Rain = 0
KUM1 122222Z 24013KT 18/M03 A2967 RMK A01 T01831034  RH  023%=      5-min Rain = 0
KUM1 122223Z 25016KT 18/M03 A2967 RMK A01 T01831034  RH  023%=      5-min Rain = 0
KUM1 122224Z 24017KT 18/M04 A2967 RMK A01 T01831036  RH  022%=      5-min Rain = 0
KUM1 122225Z 24017KT 18/M04 A2967 RMK A01 T01831039  RH  022%=      5-min Rain = 0
KUM1 122226Z 24018KT 18/M04 A2967 RMK A01 T01831039  RH  022%=      5-min Rain = 0
KUM1 122227Z 24017KT 18/M04 A2967 RMK A01 T01831039  RH  022%=      5-min Rain = 0
KUM1 122228Z 24014KT 18/M04 A2967 RMK A01 T01831038  RH  022%=      5-min Rain = 0
KUM1 122229Z 25017KT 18/M04 A2967 RMK A01 T01821036  RH  022%=      5-min Rain = 0
KUM1 122230Z 25019KT 18/M04 A2967 RMK A01 T01811039  RH  022%=      5-min Rain = 0
KUM1 122231Z 24020KT 18/M04 A2967 RMK A01 T01811042  RH  022%=      5-min Rain = 0
KUM1 122232Z 25017KT 18/M04 A2967 RMK A01 T01811041  RH  022%=      5-min Rain = 0
KUM1 122233Z 25018KT 18/M04 A2967 RMK A01 T01811040  RH  022%=      5-min Rain = 0
KUM1 122234Z 25017KT 18/M04 A2967 RMK A01 T01801040  RH  022%=      5-min Rain = 0
KUM1 122235Z 25018KT 18/M04 A2967 RMK A01 T01791038  RH  022%=      5-min Rain = 0
KUM1 122236Z 24017KT 18/M04 A2967 RMK A01 T01791039  RH  022%=      5-min Rain = 0
KUM1 122237Z 25017KT 18/M04 A2967 RMK A01 T01781039  RH  022%=      5-min Rain = 0
KUM1 122238Z 24016KT 18/M04 A2967 RMK A01 T01791039  RH  022%=      5-min Rain = 0
KUM1 122239Z 24015KT 18/M04 A2967 RMK A01 T01781038  RH  023%=      5-min Rain = 0
KUM1 122240Z 24012KT 18/M04 A2967 RMK A01 T01781037  RH  023%=      5-min Rain = 0
KUM1 122241Z 24011KT 18/M04 A2967 RMK A01 T01771035  RH  023%=      5-min Rain = 0
KUM1 122242Z 24012KT 18/M04 A2967 RMK A01 T01761036  RH  023%=      5-min Rain = 0
KUM1 122243Z 24013KT 18/M04 A2967 RMK A01 T01761035  RH  023%=      5-min Rain = 0
KUM1 122244Z 25013KT 18/M04 A2967 RMK A01 T01761035  RH  023%=      5-min Rain = 0
KUM1 122245Z 24012KT 18/M04 A2967 RMK A01 T01751035  RH  024%=      5-min Rain = 0
KUM1 122246Z 24014KT 18/M04 A2967 RMK A01 T01751036  RH  024%=      5-min Rain = 0
KUM1 122247Z 25014KT 18/M04 A2967 RMK A01 T01751037  RH  023%=      5-min Rain = 0
KUM1 122248Z 24013KT 17/M04 A2967 RMK A01 T01741036  RH  024%=      5-min Rain = 0
KUM1 122249Z 24012KT 17/M04 A2967 RMK A01 T01741036  RH  024%=      5-min Rain = 0
KUM1 122250Z 24011KT 17/M04 A2967 RMK A01 T01741035  RH  024%=      5-min Rain = 0
KUM1 122251Z 25012KT 17/M03 A2967 RMK A01 T01731033  RH  024%=      5-min Rain = 0
KUM1 122252Z 24011KT 17/M03 A2967 RMK A01 T01721032  RH  025%=      5-min Rain = 0
KUM1 122253Z 24010KT 17/M03 A2967 RMK A01 T01711032  RH  025%=      5-min Rain = 0
KUM1 122254Z 24012KT 17/M03 A2967 RMK A01 T01701034  RH  025%=      5-min Rain = 0
KUM1 122255Z 24011KT 17/M03 A2967 RMK A01 T01701033  RH  025%=      5-min Rain = 0
KUM1 122256Z 24013KT 17/M03 A2967 RMK A01 T01691033  RH  025%=      5-min Rain = 0
KUM1 122257Z 24012KT 17/M03 A2966 RMK A01 T01691034  RH  025%=      5-min Rain = 0
KUM1 122258Z 24012KT 17/M03 A2967 RMK A01 T01681034  RH  025%=      5-min Rain = 0
KUM1 122259Z 24011KT 17/M04 A2966 RMK A01 T01681035  RH  025%=      5-min Rain = 0
KUM1 122300Z 24012KT 17/M04 A2966 RMK A01 T01671035  RH  025%=      5-min Rain = 0
KUM1 122301Z 24011KT 17/M04 A2966 RMK A01 T01661035  RH  025%=      5-min Rain = 0
KUM1 122302Z 24012KT 17/M04 A2966 RMK A01 T01651035  RH  025%=      5-min Rain = 0
KUM1 122303Z 24013KT 17/M04 A2966 RMK A01 T01651038  RH  025%=      5-min Rain = 0
KUM1 122304Z 24012KT 17/M04 A2966 RMK A01 T01651037  RH  025%=      5-min Rain = 0
KUM1 122305Z 23013KT 17/M04 A2966 RMK A01 T01651038  RH  025%=      5-min Rain = 0
KUM1 122306Z 24013KT 17/M04 A2966 RMK A01 T01651038  RH  025%=      5-min Rain = 0
KUM1 122307Z 24012KT 16/M04 A2966 RMK A01 T01641038  RH  025%=      5-min Rain = 0
KUM1 122308Z 24013KT 16/M04 A2966 RMK A01 T01631037  RH  025%=      5-min Rain = 0
KUM1 122309Z 23011KT 16/M04 A2966 RMK A01 T01631038  RH  025%=      5-min Rain = 0
KUM1 122310Z 24012KT 16/M04 A2966 RMK A01 T01631038  RH  025%=      5-min Rain = 0
KUM1 122311Z 24012KT 16/M04 A2966 RMK A01 T01631039  RH  025%=      5-min Rain = 0
KUM1 122312Z 24011KT 16/M04 A2966 RMK A01 T01621038  RH  025%=      5-min Rain = 0
KUM1 122313Z 23012KT 16/M04 A2966 RMK A01 T01611038  RH  025%=      5-min Rain = 0
KUM1 122314Z 23012KT 16/M04 A2966 RMK A01 T01611038  RH  025%=      5-min Rain = 0
KUM1 122315Z 24011KT 16/M04 A2966 RMK A01 T01601037  RH  026%=      5-min Rain = 0
KUM1 122316Z 24012KT 16/M04 A2966 RMK A01 T01591039  RH  025%=      5-min Rain = 0
KUM1 122317Z 24012KT 16/M04 A2966 RMK A01 T01581040  RH  025%=      5-min Rain = 0
KUM1 122318Z 24011KT 16/M04 A2966 RMK A01 T01591041  RH  025%=      5-min Rain = 0
KUM1 122319Z 24012KT 16/M04 A2966 RMK A01 T01581040  RH  025%=      5-min Rain = 0
KUM1 122320Z 24011KT 16/M04 A2966 RMK A01 T01571041  RH  025%=      5-min Rain = 0
KUM1 122321Z 24011KT 16/M04 A2966 RMK A01 T01561041  RH  025%=      5-min Rain = 0
KUM1 122322Z 24011KT 16/M04 A2966 RMK A01 T01551041  RH  026%=      5-min Rain = 0
KUM1 122323Z 24012KT 15/M04 A2966 RMK A01 T01541041  RH  026%=      5-min Rain = 0
KUM1 122324Z 24012KT 15/M04 A2966 RMK A01 T01531041  RH  026%=      5-min Rain = 0
KUM1 122325Z 24011KT 15/M04 A2966 RMK A01 T01521042  RH  026%=      5-min Rain = 0
KUM1 122326Z 24011KT 15/M04 A2966 RMK A01 T01521042  RH  026%=      5-min Rain = 0
KUM1 122327Z 24011KT 15/M04 A2966 RMK A01 T01501042  RH  026%=      5-min Rain = 0
KUM1 122328Z 24010KT 15/M04 A2966 RMK A01 T01491041  RH  027%=      5-min Rain = 0
KUM1 122329Z 24010KT 15/M04 A2966 RMK A01 T01471042  RH  027%=      5-min Rain = 0
KUM1 122330Z 24011KT 15/M04 A2966 RMK A01 T01461043  RH  027%=      5-min Rain = 0
KUM1 122331Z 24010KT 15/M04 A2966 RMK A01 T01461043  RH  027%=      5-min Rain = 0
KUM1 122332Z 24010KT 15/M04 A2966 RMK A01 T01461043  RH  027%=      5-min Rain = 0
KUM1 122333Z 23010KT 15/M04 A2966 RMK A01 T01451043  RH  027%=      5-min Rain = 0
KUM1 122334Z 23011KT 14/M04 A2966 RMK A01 T01431043  RH  027%=      5-min Rain = 0
KUM1 122335Z 24010KT 14/M04 A2966 RMK A01 T01411043  RH  028%=      5-min Rain = 0
KUM1 122336Z 23010KT 14/M04 A2966 RMK A01 T01401043  RH  028%=      5-min Rain = 0
KUM1 122337Z 23010KT 14/M04 A2966 RMK A01 T01391043  RH  028%=      5-min Rain = 0
KUM1 122338Z 23010KT 14/M04 A2966 RMK A01 T01381043  RH  028%=      5-min Rain = 0
KUM1 122339Z 23010KT 14/M04 A2966 RMK A01 T01371041  RH  029%=      5-min Rain = 0
KUM1 122340Z 23010KT 14/M04 A2966 RMK A01 T01361041  RH  029%=      5-min Rain = 0
KUM1 122341Z 23009KT 14/M04 A2966 RMK A01 T01351040  RH  029%=      5-min Rain = 0
KUM1 122342Z 23010KT 13/M04 A2966 RMK A01 T01341040  RH  030%=      5-min Rain = 0
KUM1 122343Z 23009KT 13/M04 A2966 RMK A01 T01331039  RH  030%=      5-min Rain = 0
KUM1 122344Z 23009KT 13/M04 A2966 RMK A01 T01311039  RH  030%=      5-min Rain = 0
KUM1 122345Z 23008KT 13/M04 A2966 RMK A01 T01301039  RH  031%=      5-min Rain = 0
KUM1 122346Z 23008KT 13/M04 A2966 RMK A01 T01291040  RH  031%=      5-min Rain = 0
KUM1 122347Z 23008KT 13/M04 A2966 RMK A01 T01271041  RH  031%=      5-min Rain = 0
KUM1 122348Z 22008KT 13/M04 A2966 RMK A01 T01251041  RH  031%=      5-min Rain = 0
KUM1 122349Z 23008KT 12/M04 A2966 RMK A01 T01231041  RH  032%=      5-min Rain = 0
KUM1 122350Z 23008KT 12/M04 A2966 RMK A01 T01211040  RH  032%=      5-min Rain = 0
KUM1 122351Z 23008KT 12/M04 A2966 RMK A01 T01201040  RH  032%=      5-min Rain = 0
KUM1 122352Z 22008KT 12/M04 A2966 RMK A01 T01191040  RH  033%=      5-min Rain = 0
KUM1 122353Z 23009KT 12/M04 A2966 RMK A01 T01171040  RH  033%=      5-min Rain = 0
KUM1 122354Z 22009KT 12/M04 A2966 RMK A01 T01161040  RH  033%=      5-min Rain = 0
KUM1 122355Z 22009KT 12/M04 A2966 RMK A01 T01151041  RH  033%=      5-min Rain = 0
KUM1 122356Z 22009KT 11/M04 A2966 RMK A01 T01131041  RH  034%=      5-min Rain = 0
KUM1 122357Z 22009KT 11/M04 A2966 RMK A01 T01121041  RH  034%=      5-min Rain = 0
KUM1 122358Z 22009KT 11/M04 A2966 RMK A01 T01101042  RH  034%=      5-min Rain = 0
KUM1 122359Z 22009KT 11/M04 A2966 RMK A01 T01091042  RH  034%=      5-min Rain = 0
KUM1 130000Z 22009KT 11/M04 A2966 RMK A01 T01081042  RH  035%=      5-min Rain = 0
KUM1 130001Z 22009KT 11/M04 A2966 RMK A01 T01081042  RH  035%=      5-min Rain = 0
KUM1 130002Z 22009KT 11/M04 A2966 RMK A01 T01071042  RH  035%=      5-min Rain = 0
KUM1 130003Z 22009KT 11/M04 A2966 RMK A01 T01081042  RH  035%=      5-min Rain = 0
KUM1 130004Z 22009KT 11/M04 A2966 RMK A01 T01071042  RH  035%=      5-min Rain = 0
KUM1 130005Z 22008KT 11/M04 A2966 RMK A01 T01051043  RH  035%=      5-min Rain = 0
KUM1 130006Z 22008KT 10/M04 A2966 RMK A01 T01041043  RH  035%=      5-min Rain = 0
KUM1 130007Z 22008KT 10/M04 A2966 RMK A01 T01041044  RH  035%=      5-min Rain = 0
KUM1 130008Z 22008KT 10/M04 A2966 RMK A01 T01021044  RH  035%=      5-min Rain = 0
KUM1 130009Z 22009KT 10/M05 A2966 RMK A01 T01011045  RH  036%=      5-min Rain = 0
KUM1 130010Z 22009KT 10/M05 A2966 RMK A01 T00991045  RH  036%=      5-min Rain = 0
KUM1 130011Z 23009KT 10/M05 A2966 RMK A01 T00981045  RH  036%=      5-min Rain = 0
KUM1 130012Z 22009KT 10/M05 A2966 RMK A01 T00981045  RH  036%=      5-min Rain = 0
KUM1 130013Z 22009KT 10/M05 A2966 RMK A01 T00981046  RH  036%=      5-min Rain = 0
KUM1 130014Z 22008KT 10/M05 A2966 RMK A01 T00971046  RH  036%=      5-min Rain = 0
KUM1 130015Z 22009KT 10/M05 A2966 RMK A01 T00951046  RH  037%=      5-min Rain = 0
KUM1 130016Z 22009KT 09/M05 A2966 RMK A01 T00921047  RH  037%=      5-min Rain = 0
KUM1 130017Z 22009KT 09/M05 A2966 RMK A01 T00891048  RH  038%=      5-min Rain = 0
KUM1 130018Z 22009KT 09/M05 A2966 RMK A01 T00871049  RH  038%=      5-min Rain = 0
KUM1 130019Z 22010KT 09/M05 A2966 RMK A01 T00851050  RH  038%=      5-min Rain = 0
KUM1 130020Z 22010KT 08/M05 A2966 RMK A01 T00841049  RH  038%=      5-min Rain = 0
KUM1 130021Z 22010KT 09/M05 A2966 RMK A01 T00851049  RH  038%=      5-min Rain = 0
KUM1 130022Z 22010KT 09/M05 A2966 RMK A01 T00871048  RH  038%=      5-min Rain = 0
KUM1 130023Z 22010KT 09/M05 A2966 RMK A01 T00891048  RH  038%=      5-min Rain = 0
KUM1 130024Z 22009KT 09/M05 A2966 RMK A01 T00911047  RH  037%=      5-min Rain = 0
KUM1 130025Z 22009KT 09/M05 A2966 RMK A01 T00931047  RH  037%=      5-min Rain = 0
KUM1 130026Z 22009KT 10/M05 A2966 RMK A01 T00951047  RH  036%=      5-min Rain = 0
KUM1 130027Z 22009KT 10/M05 A2966 RMK A01 T00951047  RH  036%=      5-min Rain = 0
KUM1 130028Z 22009KT 10/M05 A2966 RMK A01 T00961047  RH  036%=      5-min Rain = 0
KUM1 130029Z 22009KT 10/M05 A2966 RMK A01 T00971046  RH  036%=      5-min Rain = 0
KUM1 130030Z 22009KT 10/M05 A2966 RMK A01 T00971046  RH  036%=      5-min Rain = 0
KUM1 130031Z 22009KT 10/M05 A2966 RMK A01 T00971045  RH  036%=      5-min Rain = 0
KUM1 130032Z 22010KT 10/M05 A2966 RMK A01 T00971045  RH  036%=      5-min Rain = 0
KUM1 130033Z 23010KT 10/M05 A2966 RMK A01 T00971045  RH  036%=      5-min Rain = 0
KUM1 130034Z 22010KT 10/M05 A2966 RMK A01 T00971045  RH  037%=      5-min Rain = 0
KUM1 130035Z 22010KT 10/M05 A2966 RMK A01 T00971045  RH  036%=      5-min Rain = 0
KUM1 130036Z 22010KT 10/M05 A2966 RMK A01 T00981045  RH  036%=      5-min Rain = 0
KUM1 130037Z 22010KT 10/M05 A2965 RMK A01 T00981045  RH  036%=      5-min Rain = 0
KUM1 130038Z 22010KT 10/M05 A2965 RMK A01 T00981045  RH  036%=      5-min Rain = 0
KUM1 130039Z 22010KT 10/M05 A2966 RMK A01 T00961046  RH  036%=      5-min Rain = 0
KUM1 130040Z 22010KT 10/M05 A2966 RMK A01 T00961047  RH  036%=      5-min Rain = 0
KUM1 130041Z 22010KT 10/M05 A2966 RMK A01 T00961047  RH  036%=      5-min Rain = 0
KUM1 130042Z 22010KT 10/M05 A2965 RMK A01 T00961048  RH  036%=      5-min Rain = 0
KUM1 130043Z 23009KT 10/M05 A2965 RMK A01 T00961049  RH  036%=      5-min Rain = 0
KUM1 130044Z 22009KT 10/M05 A2965 RMK A01 T00961049  RH  036%=      5-min Rain = 0
KUM1 130045Z 23009KT 10/M05 A2965 RMK A01 T00971049  RH  035%=      5-min Rain = 0
KUM1 130046Z 23009KT 10/M05 A2965 RMK A01 T00971049  RH  035%=      5-min Rain = 0
KUM1 130047Z 22009KT 10/M05 A2965 RMK A01 T00971049  RH  035%=      5-min Rain = 0
KUM1 130048Z 22008KT 10/M05 A2965 RMK A01 T00971049  RH  035%=      5-min Rain = 0
KUM1 130049Z 21007KT 10/M05 A2966 RMK A01 T00971050  RH  035%=      5-min Rain = 0
KUM1 130050Z 21009KT 09/M05 A2966 RMK A01 T00941052  RH  035%=      5-min Rain = 0
KUM1 130051Z 21008KT 09/M05 A2966 RMK A01 T00911052  RH  036%=      5-min Rain = 0
KUM1 130052Z 21008KT 09/M05 A2966 RMK A01 T00871053  RH  037%=      5-min Rain = 0
KUM1 130053Z 21008KT 08/M05 A2966 RMK A01 T00841053  RH  037%=      5-min Rain = 0
KUM1 130054Z 21008KT 08/M05 A2965 RMK A01 T00821053  RH  038%=      5-min Rain = 0
KUM1 130055Z 21008KT 08/M05 A2965 RMK A01 T00811053  RH  038%=      5-min Rain = 0
KUM1 130056Z 22008KT 08/M05 A2965 RMK A01 T00801052  RH  039%=      5-min Rain = 0
KUM1 130057Z 22008KT 08/M05 A2965 RMK A01 T00791053  RH  039%=      5-min Rain = 0
KUM1 130058Z 21008KT 08/M05 A2966 RMK A01 T00781053  RH  039%=      5-min Rain = 0
KUM1 130059Z 21008KT 08/M05 A2966 RMK A01 T00761053  RH  039%=      5-min Rain = 0
KUM1 130100Z 20009KT 07/M05 A2966 RMK A01 T00741054  RH  040%=      5-min Rain = 0
KUM1 130101Z 20009KT 07/M05 A2966 RMK A01 T00731054  RH  040%=      5-min Rain = 0
KUM1 130102Z 20009KT 07/M05 A2966 RMK A01 T00731054  RH  040%=      5-min Rain = 0
KUM1 130103Z 20009KT 07/M05 A2966 RMK A01 T00721054  RH  040%=      5-min Rain = 0
KUM1 130104Z 20009KT 07/M05 A2966 RMK A01 T00711054  RH  041%=      5-min Rain = 0
KUM1 130105Z 21009KT 07/M05 A2966 RMK A01 T00711054  RH  041%=      5-min Rain = 0
KUM1 130106Z 21009KT 07/M05 A2966 RMK A01 T00701054  RH  041%=      5-min Rain = 0
KUM1 130107Z 21010KT 07/M05 A2966 RMK A01 T00701054  RH  041%=      5-min Rain = 0
KUM1 130108Z 21010KT 07/M05 A2966 RMK A01 T00701053  RH  041%=      5-min Rain = 0
KUM1 130109Z 21010KT 07/M05 A2966 RMK A01 T00701053  RH  041%=      5-min Rain = 0
KUM1 130110Z 21010KT 07/M05 A2966 RMK A01 T00701053  RH  041%=      5-min Rain = 0
KUM1 130111Z 21010KT 07/M05 A2966 RMK A01 T00701053  RH  041%=      5-min Rain = 0
KUM1 130112Z 21011KT 07/M05 A2966 RMK A01 T00711053  RH  041%=      5-min Rain = 0
KUM1 130113Z 21011KT 07/M05 A2965 RMK A01 T00731052  RH  041%=      5-min Rain = 0
KUM1 130114Z 21010KT 07/M05 A2965 RMK A01 T00741050  RH  041%=      5-min Rain = 0
KUM1 130115Z 21009KT 08/M05 A2966 RMK A01 T00751051  RH  041%=      5-min Rain = 0
KUM1 130116Z 21009KT 07/M05 A2966 RMK A01 T00741051  RH  041%=      5-min Rain = 0
KUM1 130117Z 21009KT 07/M05 A2966 RMK A01 T00721051  RH  041%=      5-min Rain = 0
KUM1 130118Z 22008KT 07/M05 A2966 RMK A01 T00701051  RH  042%=      5-min Rain = 0
KUM1 130119Z 22008KT 07/M05 A2966 RMK A01 T00701051  RH  042%=      5-min Rain = 0
KUM1 130120Z 22009KT 07/M05 A2966 RMK A01 T00701050  RH  042%=      5-min Rain = 0
KUM1 130121Z 22010KT 07/M05 A2966 RMK A01 T00701048  RH  043%=      5-min Rain = 0
KUM1 130122Z 22010KT 07/M05 A2966 RMK A01 T00701047  RH  043%=      5-min Rain = 0
KUM1 130123Z 21011KT 07/M05 A2966 RMK A01 T00701046  RH  043%=      5-min Rain = 0
KUM1 130124Z 21011KT 07/M05 A2966 RMK A01 T00711046  RH  043%=      5-min Rain = 0
KUM1 130125Z 22011KT 07/M05 A2966 RMK A01 T00721046  RH  043%=      5-min Rain = 0
KUM1 130126Z 22011KT 07/M05 A2966 RMK A01 T00711047  RH  043%=      5-min Rain = 0
KUM1 130127Z 22010KT 07/M05 A2966 RMK A01 T00721046  RH  043%=      5-min Rain = 0
KUM1 130128Z 22011KT 07/M05 A2966 RMK A01 T00721046  RH  043%=      5-min Rain = 0
KUM1 130129Z 22011KT 07/M05 A2966 RMK A01 T00721046  RH  043%=      5-min Rain = 0
KUM1 130130Z 22010KT 07/M05 A2966 RMK A01 T00721045  RH  043%=      5-min Rain = 0
KUM1 130131Z 21011KT 07/M05 A2966 RMK A01 T00721045  RH  043%=      5-min Rain = 0
KUM1 130132Z 22012KT 07/M05 A2966 RMK A01 T00721045  RH  043%=      5-min Rain = 0
KUM1 130133Z 22012KT 07/M04 A2966 RMK A01 T00731043  RH  044%=      5-min Rain = 0
KUM1 130134Z 22011KT 07/M04 A2966 RMK A01 T00731042  RH  044%=      5-min Rain = 0
KUM1 130135Z 22012KT 07/M04 A2966 RMK A01 T00741041  RH  044%=      5-min Rain = 0
KUM1 130136Z 23010KT 07/M04 A2966 RMK A01 T00741041  RH  044%=      5-min Rain = 0
KUM1 130137Z 22011KT 08/M04 A2966 RMK A01 T00751039  RH  044%=      5-min Rain = 0
KUM1 130138Z 22012KT 08/M04 A2966 RMK A01 T00761039  RH  044%=      5-min Rain = 0
KUM1 130139Z 22012KT 08/M04 A2966 RMK A01 T00751038  RH  044%=      5-min Rain = 0
KUM1 130140Z 22012KT 08/M04 A2966 RMK A01 T00751038  RH  045%=      5-min Rain = 0
KUM1 130141Z 22012KT 08/M04 A2966 RMK A01 T00751038  RH  045%=      5-min Rain = 0
KUM1 130142Z 22010KT 07/M04 A2965 RMK A01 T00741038  RH  045%=      5-min Rain = 0
KUM1 130143Z 22010KT 07/M04 A2966 RMK A01 T00741037  RH  045%=      5-min Rain = 0
KUM1 130144Z 22011KT 07/M04 A2965 RMK A01 T00741037  RH  045%=      5-min Rain = 0
KUM1 130145Z 22011KT 07/M04 A2965 RMK A01 T00741036  RH  045%=      5-min Rain = 0
KUM1 130146Z 22011KT 07/M04 A2965 RMK A01 T00731036  RH  046%=      5-min Rain = 0
KUM1 130147Z 22011KT 07/M04 A2965 RMK A01 T00721037  RH  046%=      5-min Rain = 0
KUM1 130148Z 22011KT 07/M04 A2965 RMK A01 T00711036  RH  046%=      5-min Rain = 0
KUM1 130149Z 22011KT 07/M04 A2965 RMK A01 T00711036  RH  047%=      5-min Rain = 0
KUM1 130150Z 22011KT 07/M04 A2965 RMK A01 T00711035  RH  047%=      5-min Rain = 0
KUM1 130151Z 22012KT 07/M04 A2965 RMK A01 T00711035  RH  047%=      5-min Rain = 0
KUM1 130152Z 22011KT 07/M03 A2965 RMK A01 T00711034  RH  047%=      5-min Rain = 0
KUM1 130153Z 22012KT 07/M03 A2965 RMK A01 T00711034  RH  047%=      5-min Rain = 0
KUM1 130154Z 22012KT 07/M03 A2965 RMK A01 T00701033  RH  048%=      5-min Rain = 0
KUM1 130155Z 22012KT 07/M03 A2965 RMK A01 T00701034  RH  048%=      5-min Rain = 0
KUM1 130156Z 22012KT 07/M03 A2965 RMK A01 T00691034  RH  048%=      5-min Rain = 0
KUM1 130157Z 21012KT 07/M03 A2965 RMK A01 T00691033  RH  048%=      5-min Rain = 0
KUM1 130158Z 22013KT 07/M03 A2965 RMK A01 T00701033  RH  048%=      5-min Rain = 0
KUM1 130159Z 22013KT 07/M03 A2965 RMK A01 T00711033  RH  048%=      5-min Rain = 0
KUM1 130200Z 22012KT 07/M03 A2965 RMK A01 T00721032  RH  047%=      5-min Rain = 0
KUM1 130201Z 22013KT 07/M03 A2965 RMK A01 T00721032  RH  047%=      5-min Rain = 0
KUM1 130202Z 22013KT 07/M03 A2965 RMK A01 T00731032  RH  047%=      5-min Rain = 0
KUM1 130203Z 22014KT 07/M03 A2965 RMK A01 T00741032  RH  047%=      5-min Rain = 0
KUM1 130204Z 22013KT 08/M03 A2965 RMK A01 T00751031  RH  047%=      5-min Rain = 0
KUM1 130205Z 22013KT 08/M03 A2965 RMK A01 T00761032  RH  046%=      5-min Rain = 0
KUM1 130206Z 22013KT 08/M03 A2965 RMK A01 T00771032  RH  046%=      5-min Rain = 0
KUM1 130207Z 22013KT 08/M03 A2965 RMK A01 T00781031  RH  046%=      5-min Rain = 0
KUM1 130208Z 22014KT 08/M03 A2965 RMK A01 T00781031  RH  046%=      5-min Rain = 0
KUM1 130209Z 22013KT 08/M03 A2965 RMK A01 T00781031  RH  046%=      5-min Rain = 0
KUM1 130210Z 22014KT 08/M03 A2965 RMK A01 T00791030  RH  046%=      5-min Rain = 0
KUM1 130211Z 23014KT 08/M03 A2965 RMK A01 T00801030  RH  046%=      5-min Rain = 0
KUM1 130212Z 22014KT 08/M03 A2965 RMK A01 T00831030  RH  045%=      5-min Rain = 0
KUM1 130213Z 22014KT 08/M03 A2965 RMK A01 T00831031  RH  044%=      5-min Rain = 0
KUM1 130214Z 23014KT 08/M03 A2965 RMK A01 T00841031  RH  044%=      5-min Rain = 0
KUM1 130215Z 22013KT 08/M03 A2965 RMK A01 T00841031  RH  044%=      5-min Rain = 0
KUM1 130216Z 22013KT 08/M03 A2964 RMK A01 T00831032  RH  044%=      5-min Rain = 0
KUM1 130217Z 22014KT 08/M03 A2964 RMK A01 T00821032  RH  045%=      5-min Rain = 0
KUM1 130218Z 22014KT 08/M03 A2964 RMK A01 T00821031  RH  045%=      5-min Rain = 0
KUM1 130219Z 22014KT 08/M03 A2964 RMK A01 T00831031  RH  045%=      5-min Rain = 0
KUM1 130220Z 22014KT 08/M03 A2964 RMK A01 T00831030  RH  045%=      5-min Rain = 0
KUM1 130221Z 22014KT 08/M03 A2964 RMK A01 T00831030  RH  045%=      5-min Rain = 0
KUM1 130222Z 22014KT 08/M03 A2964 RMK A01 T00821030  RH  045%=      5-min Rain = 0
KUM1 130223Z 22014KT 08/M03 A2964 RMK A01 T00811029  RH  045%=      5-min Rain = 0
KUM1 130224Z 22014KT 08/M03 A2964 RMK A01 T00821029  RH  045%=      5-min Rain = 0
KUM1 130225Z 22015KT 08/M03 A2964 RMK A01 T00821029  RH  045%=      5-min Rain = 0
KUM1 130226Z 22014KT 08/M03 A2964 RMK A01 T00821029  RH  045%=      5-min Rain = 0
KUM1 130227Z 22014KT 08/M03 A2964 RMK A01 T00831029  RH  045%=      5-min Rain = 0
KUM1 130228Z 22014KT 08/M03 A2964 RMK A01 T00831029  RH  045%=      5-min Rain = 0
KUM1 130229Z 22015KT 08/M03 A2964 RMK A01 T00831029  RH  045%=      5-min Rain = 0
KUM1 130230Z 22014KT 08/M03 A2964 RMK A01 T00831029  RH  045%=      5-min Rain = 0
KUM1 130231Z 22014KT 08/M03 A2964 RMK A01 T00831029  RH  045%=      5-min Rain = 0
KUM1 130232Z 22014KT 08/M03 A2964 RMK A01 T00821029  RH  045%=      5-min Rain = 0
KUM1 130233Z 22014KT 08/M03 A2964 RMK A01 T00821029  RH  045%=      5-min Rain = 0
KUM1 130234Z 22014KT 08/M03 A2964 RMK A01 T00811030  RH  046%=      5-min Rain = 0
KUM1 130235Z 22016KT 08/M03 A2964 RMK A01 T00801029  RH  046%=      5-min Rain = 0
KUM1 130236Z 22014KT 08/M03 A2964 RMK A01 T00801029  RH  046%=      5-min Rain = 0
KUM1 130237Z 22014KT 08/M03 A2964 RMK A01 T00801029  RH  046%=      5-min Rain = 0
KUM1 130238Z 22013KT 08/M03 A2964 RMK A01 T00801029  RH  046%=      5-min Rain = 0
KUM1 130239Z 22014KT 08/M03 A2964 RMK A01 T00791029  RH  046%=      5-min Rain = 0
KUM1 130240Z 22014KT 08/M03 A2964 RMK A01 T00791028  RH  047%=      5-min Rain = 0
KUM1 130241Z 22014KT 08/M03 A2964 RMK A01 T00781029  RH  047%=      5-min Rain = 0
KUM1 130242Z 22014KT 08/M03 A2964 RMK A01 T00781029  RH  047%=      5-min Rain = 0
KUM1 130243Z 22013KT 08/M03 A2964 RMK A01 T00771029  RH  047%=      5-min Rain = 0
KUM1 130244Z 22015KT 08/M03 A2964 RMK A01 T00761029  RH  047%=      5-min Rain = 0
KUM1 130245Z 22013KT 08/M03 A2964 RMK A01 T00761029  RH  047%=      5-min Rain = 0
KUM1 130246Z 22014KT 08/M03 A2963 RMK A01 T00761029  RH  047%=      5-min Rain = 0
KUM1 130247Z 22014KT 08/M03 A2964 RMK A01 T00761029  RH  048%=      5-min Rain = 0
KUM1 130248Z 22014KT 08/M03 A2963 RMK A01 T00751029  RH  048%=      5-min Rain = 0
KUM1 130249Z 23015KT 08/M03 A2964 RMK A01 T00761028  RH  048%=      5-min Rain = 0
KUM1 130250Z 22013KT 08/M03 A2964 RMK A01 T00771028  RH  047%=      5-min Rain = 0
KUM1 130251Z 22013KT 08/M03 A2964 RMK A01 T00781028  RH  047%=      5-min Rain = 0
KUM1 130252Z 22013KT 08/M03 A2964 RMK A01 T00771027  RH  047%=      5-min Rain = 0
KUM1 130253Z 22014KT 08/M03 A2964 RMK A01 T00771027  RH  048%=      5-min Rain = 0
KUM1 130254Z 22015KT 08/M03 A2963 RMK A01 T00771027  RH  048%=      5-min Rain = 0
KUM1 130255Z 22015KT 08/M03 A2963 RMK A01 T00761027  RH  048%=      5-min Rain = 0
KUM1 130256Z 23013KT 08/M03 A2963 RMK A01 T00761027  RH  048%=      5-min Rain = 0
KUM1 130257Z 23014KT 08/M03 A2963 RMK A01 T00761027  RH  048%=      5-min Rain = 0
KUM1 130258Z 22014KT 08/M03 A2963 RMK A01 T00751027  RH  048%=      5-min Rain = 0
KUM1 130259Z 22014KT 08/M03 A2963 RMK A01 T00751027  RH  048%=      5-min Rain = 0
KUM1 130300Z 22013KT 07/M03 A2963 RMK A01 T00741027  RH  048%=      5-min Rain = 0
KUM1 130301Z 23014KT 07/M03 A2963 RMK A01 T00731028  RH  049%=      5-min Rain = 0
KUM1 130302Z 22014KT 07/M03 A2963 RMK A01 T00731028  RH  049%=      5-min Rain = 0
KUM1 130303Z 23014KT 07/M03 A2963 RMK A01 T00731028  RH  049%=      5-min Rain = 0
KUM1 130304Z 23015KT 07/M03 A2963 RMK A01 T00721028  RH  049%=      5-min Rain = 0
KUM1 130305Z 22013KT 07/M03 A2963 RMK A01 T00721027  RH  049%=      5-min Rain = 0
KUM1 130306Z 23014KT 07/M03 A2963 RMK A01 T00721028  RH  049%=      5-min Rain = 0
KUM1 130307Z 23013KT 07/M03 A2963 RMK A01 T00711028  RH  050%=      5-min Rain = 0
KUM1 130308Z 23013KT 07/M03 A2963 RMK A01 T00701028  RH  050%=      5-min Rain = 0
KUM1 130309Z 23014KT 07/M03 A2963 RMK A01 T00701028  RH  050%=      5-min Rain = 0
KUM1 130310Z 23013KT 07/M03 A2963 RMK A01 T00701028  RH  050%=      5-min Rain = 0
KUM1 130311Z 23014KT 07/M03 A2963 RMK A01 T00691028  RH  050%=      5-min Rain = 0
KUM1 130312Z 23012KT 07/M03 A2963 RMK A01 T00691028  RH  050%=      5-min Rain = 0
KUM1 130313Z 23012KT 07/M03 A2964 RMK A01 T00681028  RH  050%=      5-min Rain = 0
KUM1 130314Z 23013KT 07/M03 A2964 RMK A01 T00681028  RH  050%=      5-min Rain = 0
KUM1 130315Z 23013KT 07/M03 A2964 RMK A01 T00671028  RH  050%=      5-min Rain = 0
KUM1 130316Z 23012KT 07/M03 A2964 RMK A01 T00681029  RH  050%=      5-min Rain = 0
KUM1 130317Z 23013KT 07/M03 A2963 RMK A01 T00681029  RH  050%=      5-min Rain = 0
KUM1 130318Z 23015KT 07/M03 A2963 RMK A01 T00681029  RH  050%=      5-min Rain = 0
KUM1 130319Z 23013KT 07/M03 A2963 RMK A01 T00681030  RH  050%=      5-min Rain = 0
KUM1 130320Z 24013KT 07/M03 A2964 RMK A01 T00681030  RH  049%=      5-min Rain = 0
KUM1 130321Z 24013KT 07/M03 A2964 RMK A01 T00681030  RH  049%=      5-min Rain = 0
KUM1 130322Z 23013KT 07/M03 A2964 RMK A01 T00681030  RH  049%=      5-min Rain = 0
KUM1 130323Z 24014KT 07/M03 A2964 RMK A01 T00681031  RH  049%=      5-min Rain = 0
KUM1 130324Z 23013KT 07/M03 A2964 RMK A01 T00681031  RH  049%=      5-min Rain = 0
KUM1 130325Z 24014KT 07/M03 A2964 RMK A01 T00691032  RH  049%=      5-min Rain = 0
KUM1 130326Z 24012KT 07/M03 A2964 RMK A01 T00691032  RH  049%=      5-min Rain = 0
KUM1 130327Z 24013KT 07/M03 A2964 RMK A01 T00691032  RH  049%=      5-min Rain = 0
KUM1 130328Z 23013KT 07/M03 A2964 RMK A01 T00681032  RH  049%=      5-min Rain = 0
KUM1 130329Z 23014KT 07/M03 A2964 RMK A01 T00681032  RH  049%=      5-min Rain = 0
KUM1 130330Z 24014KT 07/M03 A2963 RMK A01 T00681032  RH  049%=      5-min Rain = 0
KUM1 130331Z 24015KT 07/M03 A2963 RMK A01 T00681032  RH  049%=      5-min Rain = 0
KUM1 130332Z 24014KT 07/M03 A2963 RMK A01 T00691032  RH  049%=      5-min Rain = 0
KUM1 130333Z 24014KT 07/M03 A2963 RMK A01 T00691032  RH  049%=      5-min Rain = 0
KUM1 130334Z 24015KT 07/M03 A2963 RMK A01 T00691032  RH  049%=      5-min Rain = 0
KUM1 130335Z 24014KT 07/M03 A2963 RMK A01 T00691032  RH  048%=      5-min Rain = 0
KUM1 130336Z 24014KT 07/M03 A2963 RMK A01 T00701032  RH  048%=      5-min Rain = 0
KUM1 130337Z 24013KT 07/M03 A2963 RMK A01 T00701032  RH  048%=      5-min Rain = 0
KUM1 130338Z 24013KT 07/M03 A2963 RMK A01 T00701033  RH  048%=      5-min Rain = 0
KUM1 130339Z 24013KT 07/M03 A2963 RMK A01 T00701032  RH  048%=      5-min Rain = 0
KUM1 130340Z 24013KT 07/M03 A2963 RMK A01 T00691032  RH  048%=      5-min Rain = 0
KUM1 130341Z 24014KT 07/M03 A2963 RMK A01 T00691032  RH  048%=      5-min Rain = 0
KUM1 130342Z 24015KT 07/M03 A2963 RMK A01 T00701032  RH  048%=      5-min Rain = 0
KUM1 130343Z 24016KT 07/M03 A2963 RMK A01 T00711032  RH  048%=      5-min Rain = 0
KUM1 130344Z 24015KT 07/M03 A2963 RMK A01 T00711032  RH  048%=      5-min Rain = 0
KUM1 130345Z 24015KT 07/M03 A2963 RMK A01 T00711032  RH  048%=      5-min Rain = 0
KUM1 130346Z 24016KT 07/M03 A2963 RMK A01 T00711032  RH  048%=      5-min Rain = 0
KUM1 130347Z 24017KT 07/M03 A2963 RMK A01 T00711033  RH  048%=      5-min Rain = 0
KUM1 130348Z 24017KT 07/M03 A2963 RMK A01 T00721033  RH  047%=      5-min Rain = 0
KUM1 130349Z 24017KT 07/M03 A2963 RMK A01 T00721033  RH  047%=      5-min Rain = 0
KUM1 130350Z 25016KT 07/M03 A2963 RMK A01 T00721033  RH  047%=      5-min Rain = 0
KUM1 130351Z 25017KT 07/M03 A2963 RMK A01 T00711033  RH  048%=      5-min Rain = 0
KUM1 130352Z 25016KT 07/M03 A2963 RMK A01 T00711033  RH  048%=      5-min Rain = 0
KUM1 130353Z 25016KT 07/M03 A2963 RMK A01 T00711033  RH  048%=      5-min Rain = 0
KUM1 130354Z 24016KT 07/M03 A2963 RMK A01 T00701033  RH  048%=      5-min Rain = 0
KUM1 130355Z 24016KT 07/M03 A2963 RMK A01 T00711033  RH  048%=      5-min Rain = 0
KUM1 130356Z 24015KT 07/M03 A2963 RMK A01 T00711032  RH  048%=      5-min Rain = 0
KUM1 130357Z 24015KT 07/M03 A2963 RMK A01 T00701033  RH  048%=      5-min Rain = 0
KUM1 130358Z 24016KT 07/M03 A2963 RMK A01 T00701033  RH  048%=      5-min Rain = 0
KUM1 130359Z 24015KT 07/M03 A2963 RMK A01 T00711033  RH  048%=      5-min Rain = 0
KUM1 130400Z 24015KT 07/M03 A2963 RMK A01 T00721033  RH  047%=      5-min Rain = 0
KUM1 130401Z 24015KT 07/M03 A2963 RMK A01 T00721033  RH  047%=      5-min Rain = 0
KUM1 130402Z 24015KT 07/M03 A2963 RMK A01 T00731033  RH  047%=      5-min Rain = 0
KUM1 130403Z 24015KT 07/M03 A2963 RMK A01 T00731033  RH  047%=      5-min Rain = 0
KUM1 130404Z 24015KT 07/M03 A2963 RMK A01 T00731033  RH  047%=      5-min Rain = 0
KUM1 130405Z 24015KT 07/M03 A2963 RMK A01 T00731033  RH  047%=      5-min Rain = 0
KUM1 130406Z 24015KT 07/M03 A2963 RMK A01 T00721033  RH  047%=      5-min Rain = 0
KUM1 130407Z 25015KT 07/M03 A2963 RMK A01 T00711033  RH  047%=      5-min Rain = 0
KUM1 130408Z 24015KT 07/M03 A2963 RMK A01 T00711033  RH  047%=      5-min Rain = 0
KUM1 130409Z 24015KT 07/M03 A2963 RMK A01 T00711033  RH  047%=      5-min Rain = 0
KUM1 130410Z 24014KT 07/M03 A2964 RMK A01 T00711034  RH  047%=      5-min Rain = 0
KUM1 130411Z 24015KT 07/M03 A2964 RMK A01 T00701034  RH  048%=      5-min Rain = 0
KUM1 130412Z 24014KT 07/M03 A2964 RMK A01 T00701034  RH  048%=      5-min Rain = 0
KUM1 130413Z 24015KT 07/M03 A2964 RMK A01 T00701034  RH  048%=      5-min Rain = 0
KUM1 130414Z 24015KT 07/M03 A2964 RMK A01 T00691034  RH  048%=      5-min Rain = 0
KUM1 130415Z 24015KT 07/M03 A2964 RMK A01 T00691033  RH  048%=      5-min Rain = 0
KUM1 130416Z 24015KT 07/M03 A2964 RMK A01 T00681034  RH  048%=      5-min Rain = 0
KUM1 130417Z 24015KT 07/M03 A2964 RMK A01 T00681034  RH  048%=      5-min Rain = 0
KUM1 130418Z 24015KT 07/M03 A2964 RMK A01 T00671034  RH  048%=      5-min Rain = 0
KUM1 130419Z 24014KT 07/M03 A2964 RMK A01 T00671034  RH  048%=      5-min Rain = 0
KUM1 130420Z 24015KT 07/M03 A2964 RMK A01 T00671034  RH  048%=      5-min Rain = 0
KUM1 130421Z 24015KT 07/M03 A2964 RMK A01 T00681034  RH  048%=      5-min Rain = 0
KUM1 130422Z 24014KT 07/M03 A2964 RMK A01 T00671034  RH  048%=      5-min Rain = 0
KUM1 130423Z 25015KT 07/M04 A2964 RMK A01 T00661035  RH  048%=      5-min Rain = 0
KUM1 130424Z 24015KT 07/M04 A2964 RMK A01 T00671035  RH  048%=      5-min Rain = 0
KUM1 130425Z 24015KT 07/M04 A2964 RMK A01 T00671035  RH  048%=      5-min Rain = 0
KUM1 130426Z 25015KT 07/M04 A2964 RMK A01 T00671035  RH  048%=      5-min Rain = 0
KUM1 130427Z 24015KT 07/M04 A2964 RMK A01 T00671035  RH  048%=      5-min Rain = 0
KUM1 130428Z 24015KT 07/M04 A2964 RMK A01 T00661035  RH  048%=      5-min Rain = 0
KUM1 130429Z 24015KT 07/M04 A2964 RMK A01 T00661035  RH  048%=      5-min Rain = 0
KUM1 130430Z 25015KT 07/M04 A2964 RMK A01 T00651036  RH  048%=      5-min Rain = 0
KUM1 130431Z 24014KT 07/M04 A2964 RMK A01 T00651035  RH  049%=      5-min Rain = 0
KUM1 130432Z 24015KT 06/M04 A2964 RMK A01 T00641036  RH  049%=      5-min Rain = 0
KUM1 130433Z 24014KT 06/M04 A2964 RMK A01 T00641036  RH  049%=      5-min Rain = 0
KUM1 130434Z 24014KT 06/M04 A2964 RMK A01 T00641036  RH  049%=      5-min Rain = 0
KUM1 130435Z 24015KT 06/M04 A2964 RMK A01 T00641036  RH  049%=      5-min Rain = 0
KUM1 130436Z 24014KT 06/M04 A2964 RMK A01 T00641036  RH  049%=      5-min Rain = 0
KUM1 130437Z 24015KT 06/M04 A2964 RMK A01 T00641036  RH  049%=      5-min Rain = 0
KUM1 130438Z 25015KT 06/M04 A2964 RMK A01 T00631036  RH  049%=      5-min Rain = 0
KUM1 130439Z 24016KT 06/M04 A2964 RMK A01 T00631036  RH  049%=      5-min Rain = 0
KUM1 130440Z 24015KT 06/M04 A2964 RMK A01 T00631036  RH  049%=      5-min Rain = 0
KUM1 130441Z 24015KT 06/M04 A2964 RMK A01 T00621037  RH  049%=      5-min Rain = 0
KUM1 130442Z 25014KT 06/M04 A2964 RMK A01 T00621037  RH  049%=      5-min Rain = 0
KUM1 130443Z 24015KT 06/M04 A2964 RMK A01 T00621037  RH  049%=      5-min Rain = 0
KUM1 130444Z 24016KT 06/M04 A2964 RMK A01 T00621037  RH  049%=      5-min Rain = 0
KUM1 130445Z 24016KT 06/M04 A2964 RMK A01 T00631037  RH  049%=      5-min Rain = 0
KUM1 130446Z 25016KT 06/M04 A2964 RMK A01 T00631038  RH  048%=      5-min Rain = 0
KUM1 130447Z 24016KT 06/M04 A2964 RMK A01 T00641038  RH  048%=      5-min Rain = 0
KUM1 130448Z 24017KT 06/M04 A2964 RMK A01 T00641038  RH  048%=      5-min Rain = 0
KUM1 130449Z 25017KT 06/M04 A2963 RMK A01 T00641038  RH  048%=      5-min Rain = 0
KUM1 130450Z 25017KT 07/M04 A2964 RMK A01 T00651038  RH  048%=      5-min Rain = 0
KUM1 130451Z 25016KT 07/M04 A2964 RMK A01 T00651038  RH  048%=      5-min Rain = 0
KUM1 130452Z 25016KT 06/M04 A2964 RMK A01 T00641038  RH  048%=      5-min Rain = 0
KUM1 130453Z 24017KT 06/M04 A2963 RMK A01 T00641038  RH  048%=      5-min Rain = 0
KUM1 130454Z 24016KT 07/M04 A2963 RMK A01 T00651038  RH  048%=      5-min Rain = 0
KUM1 130455Z 24016KT 06/M04 A2963 RMK A01 T00641038  RH  048%=      5-min Rain = 0
KUM1 130456Z 24015KT 06/M04 A2963 RMK A01 T00641038  RH  048%=      5-min Rain = 0
KUM1 130457Z 24014KT 06/M04 A2963 RMK A01 T00641038  RH  048%=      5-min Rain = 0
KUM1 130458Z 24015KT 06/M04 A2963 RMK A01 T00631037  RH  049%=      5-min Rain = 0
KUM1 130459Z 24014KT 06/M04 A2963 RMK A01 T00631037  RH  049%=      5-min Rain = 0
KUM1 130500Z 25014KT 06/M04 A2963 RMK A01 T00631037  RH  049%=      5-min Rain = 0
KUM1 130501Z 25015KT 06/M04 A2963 RMK A01 T00631037  RH  049%=      5-min Rain = 0
KUM1 130502Z 25015KT 06/M04 A2963 RMK A01 T00631037  RH  049%=      5-min Rain = 0
KUM1 130503Z 24015KT 06/M04 A2963 RMK A01 T00631037  RH  049%=      5-min Rain = 0
KUM1 130504Z 25015KT 06/M04 A2963 RMK A01 T00631037  RH  049%=      5-min Rain = 0
KUM1 130505Z 25014KT 06/M04 A2963 RMK A01 T00631037  RH  049%=      5-min Rain = 0
KUM1 130506Z 25014KT 06/M04 A2963 RMK A01 T00621037  RH  049%=      5-min Rain = 0
KUM1 130507Z 25015KT 06/M04 A2963 RMK A01 T00611037  RH  049%=      5-min Rain = 0
KUM1 130508Z 25014KT 06/M04 A2963 RMK A01 T00611037  RH  049%=      5-min Rain = 0
KUM1 130509Z 25015KT 06/M04 A2963 RMK A01 T00621036  RH  049%=      5-min Rain = 0
KUM1 130510Z 25016KT 06/M04 A2963 RMK A01 T00621036  RH  049%=      5-min Rain = 0
KUM1 130511Z 25016KT 06/M04 A2963 RMK A01 T00631036  RH  049%=      5-min Rain = 0
KUM1 130512Z 25016KT 06/M04 A2963 RMK A01 T00641036  RH  049%=      5-min Rain = 0
KUM1 130513Z 25015KT 06/M04 A2963 RMK A01 T00631037  RH  049%=      5-min Rain = 0
KUM1 130514Z 25016KT 06/M04 A2963 RMK A01 T00641036  RH  049%=      5-min Rain = 0
KUM1 130515Z 25015KT 06/M04 A2963 RMK A01 T00631037  RH  049%=      5-min Rain = 0
KUM1 130516Z 25015KT 06/M04 A2963 RMK A01 T00631037  RH  049%=      5-min Rain = 0
KUM1 130517Z 25015KT 06/M04 A2963 RMK A01 T00641036  RH  049%=      5-min Rain = 0
KUM1 130518Z 25016KT 06/M04 A2963 RMK A01 T00641037  RH  049%=      5-min Rain = 0
KUM1 130519Z 25015KT 07/M04 A2963 RMK A01 T00651036  RH  048%=      5-min Rain = 0
KUM1 130520Z 25016KT 07/M04 A2963 RMK A01 T00671036  RH  048%=      5-min Rain = 0
KUM1 130521Z 25015KT 07/M04 A2963 RMK A01 T00681036  RH  047%=      5-min Rain = 0
KUM1 130522Z 26014KT 07/M04 A2963 RMK A01 T00681036  RH  047%=      5-min Rain = 0
KUM1 130523Z 26015KT 07/M04 A2963 RMK A01 T00681036  RH  047%=      5-min Rain = 0
KUM1 130524Z 26013KT 07/M04 A2963 RMK A01 T00671036  RH  048%=      5-min Rain = 0
KUM1 130525Z 26014KT 07/M04 A2963 RMK A01 T00671036  RH  048%=      5-min Rain = 0
KUM1 130526Z 26015KT 07/M04 A2963 RMK A01 T00681036  RH  048%=      5-min Rain = 0
KUM1 130527Z 26014KT 07/M04 A2963 RMK A01 T00681036  RH  047%=      5-min Rain = 0
KUM1 130528Z 26014KT 07/M04 A2963 RMK A01 T00691036  RH  047%=      5-min Rain = 0
KUM1 130529Z 26014KT 07/M04 A2963 RMK A01 T00691036  RH  047%=      5-min Rain = 0
KUM1 130530Z 26014KT 07/M04 A2963 RMK A01 T00691036  RH  047%=      5-min Rain = 0
KUM1 130531Z 26014KT 07/M04 A2963 RMK A01 T00681036  RH  047%=      5-min Rain = 0
KUM1 130532Z 26014KT 07/M04 A2963 RMK A01 T00681035  RH  048%=      5-min Rain = 0
KUM1 130533Z 26014KT 07/M04 A2963 RMK A01 T00681035  RH  048%=      5-min Rain = 0
KUM1 130534Z 26014KT 07/M04 A2963 RMK A01 T00671035  RH  048%=      5-min Rain = 0
KUM1 130535Z 26014KT 07/M04 A2963 RMK A01 T00671035  RH  048%=      5-min Rain = 0
KUM1 130536Z 26014KT 07/M04 A2963 RMK A01 T00661035  RH  048%=      5-min Rain = 0
KUM1 130537Z 26015KT 07/M04 A2963 RMK A01 T00661035  RH  048%=      5-min Rain = 0
KUM1 130538Z 26014KT 07/M04 A2963 RMK A01 T00661035  RH  048%=      5-min Rain = 0
KUM1 130539Z 25015KT 07/M04 A2963 RMK A01 T00661035  RH  048%=      5-min Rain = 0
KUM1 130540Z 26013KT 07/M04 A2963 RMK A01 T00671035  RH  048%=      5-min Rain = 0
KUM1 130541Z 26014KT 07/M04 A2963 RMK A01 T00661035  RH  048%=      5-min Rain = 0
KUM1 130542Z 25013KT 07/M04 A2963 RMK A01 T00661035  RH  048%=      5-min Rain = 0
KUM1 130543Z 25014KT 07/M04 A2963 RMK A01 T00661035  RH  048%=      5-min Rain = 0
KUM1 130544Z 25013KT 07/M04 A2963 RMK A01 T00661035  RH  048%=      5-min Rain = 0
KUM1 130545Z 25013KT 07/M04 A2963 RMK A01 T00661035  RH  048%=      5-min Rain = 0
KUM1 130546Z 25014KT 07/M04 A2963 RMK A01 T00661035  RH  048%=      5-min Rain = 0
KUM1 130547Z 25014KT 07/M04 A2963 RMK A01 T00661035  RH  048%=      5-min Rain = 0
KUM1 130548Z 25013KT 07/M04 A2963 RMK A01 T00661035  RH  048%=      5-min Rain = 0
KUM1 130549Z 25014KT 07/M04 A2963 RMK A01 T00671035  RH  048%=      5-min Rain = 0
KUM1 130550Z 25014KT 07/M04 A2963 RMK A01 T00671035  RH  048%=      5-min Rain = 0
KUM1 130551Z 25015KT 07/M04 A2963 RMK A01 T00671035  RH  048%=      5-min Rain = 0
KUM1 130552Z 25014KT 07/M04 A2963 RMK A01 T00671035  RH  048%=      5-min Rain = 0
KUM1 130553Z 25014KT 07/M04 A2963 RMK A01 T00671035  RH  048%=      5-min Rain = 0
KUM1 130554Z 25014KT 07/M04 A2963 RMK A01 T00671035  RH  048%=      5-min Rain = 0
KUM1 130555Z 25015KT 07/M04 A2963 RMK A01 T00681035  RH  048%=      5-min Rain = 0
KUM1 130556Z 26015KT 07/M04 A2963 RMK A01 T00681035  RH  048%=      5-min Rain = 0
KUM1 130557Z 25015KT 07/M04 A2963 RMK A01 T00671035  RH  048%=      5-min Rain = 0
KUM1 130558Z 25015KT 07/M04 A2963 RMK A01 T00671035  RH  048%=      5-min Rain = 0
KUM1 130559Z 26014KT 07/M04 A2963 RMK A01 T00671035  RH  048%=      5-min Rain = 0

Page generated in 0.0337 seconds.